FW6073 Weather Reports


time (UTC)temp
C
wind
direction
speed
KPH
gust
KPH
rain 1hr
cm
rain 24hr
cm
rain mn
cm
humidity
%
barometer
mb
20260506222023 11 297 1.6 4.8 0.00 0.00 0.00 43 1011.6
20260506221902 11 278 1.6 4.8 0.00 0.00 0.00 42 1011.6
20260506221823 11 282 1.6 4.8 0.00 0.00 0.00 42 1011.6
20260506221702 11 294 1.6 4.8 0.00 0.00 0.00 42 1011.6
20260506221602 11 287 1.6 4.8 0.00 0.00 0.00 45 1011.6
20260506221502 11 271 1.6 4.8 0.00 0.00 0.00 43 1011.6
20260506221402 11 264 1.6 4.8 0.00 0.00 0.00 42 1011.7
20260506221302 11 297 0.0 3.2 0.00 0.00 0.00 41 1011.7
20260506221202 11 286 0.0 3.2 0.00 0.00 0.00 45 1011.7
20260506221102 11 243 0.0 3.2 0.00 0.00 0.00 44 1011.7
20260506221002 11 217 0.0 3.2 0.00 0.00 0.00 46 1011.6
20260506220902 11 216 0.0 3.2 0.00 0.00 0.00 46 1011.6
20260506220802 11 216 0.0 3.2 0.00 0.00 0.00 44 1011.6
20260506220702 11 216 0.0 3.2 0.00 0.00 0.00 44 1011.6
20260506220602 11 216 0.0 3.2 0.00 0.00 0.00 45 1011.7
20260506220502 11 215 0.0 3.2 0.00 0.00 0.00 44 1011.7
20260506220402 11 215 0.0 1.6 0.00 0.00 0.00 43 1011.7
20260506220302 11 214 0.0 1.6 0.00 0.00 0.00 45 1011.7
20260506220202 11 214 0.0 1.6 0.00 0.00 0.00 43 1011.7
20260506220002 11 207 0.0 3.2 0.00 0.00 0.00 43 1011.6
20260506215923 11 213 0.0 3.2 0.00 0.00 0.00 45 1011.6
20260506215802 11 214 1.6 3.2 0.00 0.00 0.00 44 1011.6
20260506215723 11 215 1.6 3.2 0.00 0.00 0.00 43 1011.6
20260506215602 11 225 1.6 4.8 0.00 0.00 0.00 45 1011.7
20260506215502 11 243 1.6 4.8 0.00 0.00 0.00 46 1011.7
20260506215402 11 254 1.6 4.8 0.00 0.00 0.00 44 1011.6
20260506215305 11 250 1.6 4.8 0.00 0.00 0.00 43 1011.6
20260506215202 11 244 1.6 6.4 0.00 0.00 0.00 43 1011.6
20260506215123 11 252 1.6 6.4 0.00 0.00 0.00 46 1011.6
20260506215002 11 261 1.6 6.4 0.00 0.00 0.00 43 1011.6
20260506214902 11 280 1.6 6.4 0.00 0.00 0.00 44 1011.6
20260506214802 11 294 1.6 6.4 0.00 0.00 0.00 44 1011.6
20260506214702 11 300 1.6 6.4 0.00 0.00 0.00 43 1011.6
20260506214602 11 287 1.6 6.4 0.00 0.00 0.00 44 1011.6
20260506214502 11 260 0.0 6.4 0.00 0.00 0.00 43 1011.6
20260506214423 11 245 0.0 6.4 0.00 0.00 0.00 43 1011.6
20260506214302 11 285 0.0 6.4 0.00 0.00 0.00 45 1011.6
20260506214202 11 2 0.0 1.6 0.00 0.00 0.00 44 1011.6
20260506214102 11 7 0.0 1.6 0.00 0.00 0.00 47 1011.6
20260506214002 11 360 0.0 3.2 0.00 0.00 0.00 48 1011.6
20260506213902 11 1 1.6 4.8 0.00 0.00 0.00 46 1011.5
20260506213802 11 360 1.6 4.8 0.00 0.00 0.00 46 1011.5
20260506213702 11 359 1.6 4.8 0.00 0.00 0.00 45 1011.5
20260506213623 11 358 1.6 4.8 0.00 0.00 0.00 46 1011.5
20260506213502 11 356 1.6 4.8 0.00 0.00 0.00 47 1011.5
20260506213423 11 356 1.6 4.8 0.00 0.00 0.00 45 1011.5
20260506213302 11 356 1.6 4.8 0.00 0.00 0.00 44 1011.5
20260506213202 11 357 1.6 4.8 0.00 0.00 0.00 44 1011.5
20260506213102 11 359 1.6 4.8 0.00 0.00 0.00 44 1011.5
20260506213002 11 360 1.6 4.8 0.00 0.00 0.00 44 1011.6
20260506212902 11 358 1.6 4.8 0.00 0.00 0.00 44 1011.6
20260506212802 11 358 1.6 4.8 0.00 0.00 0.00 43 1011.5
20260506212702 11 358 1.6 4.8 0.00 0.00 0.00 44 1011.5
20260506212602 11 358 1.6 4.8 0.00 0.00 0.00 45 1011.6
20260506212502 11 356 1.6 4.8 0.00 0.00 0.00 44 1011.6
20260506212402 11 355 1.6 4.8 0.00 0.00 0.00 44 1011.6
20260506212305 11 355 1.6 4.8 0.00 0.00 0.00 43 1011.5
20260506212202 11 354 1.6 4.8 0.00 0.00 0.00 44 1011.5
20260506212102 11 348 1.6 4.8 0.00 0.00 0.00 44 1011.6
20260506212002 11 341 0.0 4.8 0.00 0.00 0.00 45 1011.6
20260506211902 11 339 0.0 3.2 0.00 0.00 0.00 46 1011.6
20260506211802 11 343 0.0 4.8 0.00 0.00 0.00 44 1011.6
20260506211702 11 343 0.0 4.8 0.00 0.00 0.00 43 1011.6
20260506211602 11 343 0.0 4.8 0.00 0.00 0.00 43 1011.6
20260506211502 11 347 1.6 8.0 0.00 0.00 0.00 45 1011.6
20260506211402 11 354 1.6 8.0 0.00 0.00 0.00 45 1011.6
20260506211302 11 359 1.6 8.0 0.00 0.00 0.00 44 1011.5
20260506211202 11 357 1.6 8.0 0.00 0.00 0.00 44 1011.5
20260506211102 11 358 3.2 8.0 0.00 0.00 0.00 44 1011.5
20260506211002 11 358 3.2 8.0 0.00 0.00 0.00 44 1011.6
20260506210923 11 357 3.2 8.0 0.00 0.00 0.00 44 1011.6
20260506210802 11 356 3.2 8.0 0.00 0.00 0.00 44 1011.6
20260506210702 11 356 3.2 8.0 0.00 0.00 0.00 44 1011.6
20260506210602 11 355 3.2 8.0 0.00 0.00 0.00 43 1011.6
20260506210502 11 355 3.2 6.4 0.00 0.00 0.00 46 1011.5
20260506210402 11 353 3.2 6.4 0.00 0.00 0.00 44 1011.5
20260506210323 11 351 3.2 6.4 0.00 0.00 0.00 44 1011.5
20260506210223 11 351 3.2 6.4 0.00 0.00 0.00 45 1011.5
20260506210002 11 346 1.6 6.4 0.00 0.00 0.00 44 1011.5
20260506205902 11 348 1.6 6.4 0.00 0.00 0.00 43 1011.5
20260506205802 11 353 1.6 6.4 0.00 0.00 0.00 43 1011.5
20260506205702 11 2 1.6 6.4 0.00 0.00 0.00 45 1011.6
20260506205602 11 4 1.6 6.4 0.00 0.00 0.00 44 1011.6
20260506205523 11 6 1.6 6.4 0.00 0.00 0.00 44 1011.6
20260506205402 11 7 1.6 4.8 0.00 0.00 0.00 43 1011.6
20260506205305 11 4 1.6 4.8 0.00 0.00 0.00 43 1011.6
20260506205202 11 3 1.6 4.8 0.00 0.00 0.00 44 1011.6
20260506205102 11 3 1.6 4.8 0.00 0.00 0.00 43 1011.6
20260506205002 11 358 1.6 4.8 0.00 0.00 0.00 44 1011.5
20260506204902 11 350 1.6 4.8 0.00 0.00 0.00 42 1011.5
20260506204823 11 349 1.6 4.8 0.00 0.00 0.00 42 1011.5
20260506204702 11 334 1.6 4.8 0.00 0.00 0.00 43 1011.6
20260506204602 11 337 1.6 4.8 0.00 0.00 0.00 45 1011.6
20260506204502 11 342 1.6 6.4 0.00 0.00 0.00 43 1011.6
20260506204402 11 342 1.6 6.4 0.00 0.00 0.00 44 1011.6
20260506204302 11 343 1.6 6.4 0.00 0.00 0.00 43 1011.6
20260506204202 11 348 1.6 6.4 0.00 0.00 0.00 44 1011.6
20260506204102 11 351 1.6 6.4 0.00 0.00 0.00 43 1011.6
20260506204002 11 351 1.6 6.4 0.00 0.00 0.00 43 1011.6
20260506203902 11 355 1.6 6.4 0.00 0.00 0.00 42 1011.6
20260506203802 11 355 1.6 6.4 0.00 0.00 0.00 43 1011.6
20260506203702 11 356 1.6 6.4 0.00 0.00 0.00 42 1011.5
20260506203602 11 350 1.6 6.4 0.00 0.00 0.00 42 1011.6
20260506203502 11 345 1.6 6.4 0.00 0.00 0.00 42 1011.6
20260506203423 11 340 1.6 6.4 0.00 0.00 0.00 43 1011.6
20260506203302 11 331 1.6 6.4 0.00 0.00 0.00 42 1011.6
20260506203202 12 325 1.6 6.4 0.00 0.00 0.00 42 1011.6
20260506203102 12 291 1.6 6.4 0.00 0.00 0.00 44 1011.6
20260506203002 12 284 1.6 6.4 0.00 0.00 0.00 44 1011.6
20260506202902 12 284 1.6 6.4 0.00 0.00 0.00 41 1011.6
20260506202823 12 269 1.6 8.0 0.00 0.00 0.00 41 1011.6
20260506202723 12 248 1.6 8.0 0.00 0.00 0.00 41 1011.6
20260506202602 12 243 1.6 8.0 0.00 0.00 0.00 41 1011.6
20260506202502 12 246 1.6 8.0 0.00 0.00 0.00 41 1011.6
20260506202402 12 251 1.6 8.0 0.00 0.00 0.00 41 1011.6
20260506202305 12 258 1.6 8.0 0.00 0.00 0.00 43 1011.6
20260506202202 12 259 1.6 8.0 0.00 0.00 0.00 46 1011.6
20260506202102 12 267 1.6 8.0 0.00 0.00 0.00 45 1011.6
20260506202002 11 279 1.6 8.0 0.00 0.00 0.00 43 1011.6
20260506201902 11 282 1.6 8.0 0.00 0.00 0.00 42 1011.6
20260506201823 11 315 1.6 4.8 0.00 0.00 0.00 42 1011.6
20260506201702 11 330 1.6 4.8 0.00 0.00 0.00 43 1011.6
20260506201602 12 335 1.6 4.8 0.00 0.00 0.00 41 1011.6
20260506201502 12 314 0.0 4.8 0.00 0.00 0.00 42 1011.6
20260506201402 12 308 0.0 4.8 0.00 0.00 0.00 41 1011.6
20260506201302 12 315 0.0 4.8 0.00 0.00 0.00 42 1011.5
20260506201202 12 324 0.0 4.8 0.00 0.00 0.00 42 1011.5
20260506201123 12 324 0.0 4.8 0.00 0.00 0.00 43 1011.6
20260506201003 12 332 1.6 4.8 0.00 0.00 0.00 43 1011.6
20260506200923 12 337 1.6 4.8 0.00 0.00 0.00 42 1011.6
20260506200802 12 332 1.6 4.8 0.00 0.00 0.00 44 1011.6
20260506200702 12 309 1.6 4.8 0.00 0.00 0.00 43 1011.6
20260506200602 12 237 1.6 6.4 0.00 0.00 0.00 44 1011.6
20260506200502 11 228 1.6 6.4 0.00 0.00 0.00 45 1011.6
20260506200402 11 232 1.6 6.4 0.00 0.00 0.00 43 1011.6
20260506200323 11 226 1.6 6.4 0.00 0.00 0.00 43 1011.6
20260506200203 11 225 1.6 6.4 0.00 0.00 0.00 44 1011.6
20260506200002 11 233 1.6 6.4 0.00 0.00 0.00 42 1011.8
20260506195902 11 229 1.6 6.4 0.00 0.00 0.00 43 1011.8
20260506195823 11 232 1.6 6.4 0.00 0.00 0.00 43 1011.7
20260506195702 11 235 1.6 6.4 0.00 0.00 0.00 47 1011.7
20260506195602 11 249 1.6 6.4 0.00 0.00 0.00 43 1011.8
20260506195502 11 258 1.6 6.4 0.00 0.00 0.00 44 1011.9
20260506195402 11 254 1.6 6.4 0.00 0.00 0.00 46 1011.9
20260506195323 11 255 1.6 6.4 0.00 0.00 0.00 44 1011.9
20260506195202 11 280 1.6 4.8 0.00 0.00 0.00 46 1012.0
20260506195102 11 251 1.6 4.8 0.00 0.00 0.00 47 1012.0
20260506195002 11 247 1.6 4.8 0.00 0.00 0.00 44 1011.9
20260506194902 11 242 1.6 4.8 0.00 0.00 0.00 44 1011.9
20260506194823 11 238 1.6 4.8 0.00 0.00 0.00 45 1011.9
20260506194702 11 327 1.6 4.8 0.00 0.00 0.00 46 1011.8
20260506194602 11 342 1.6 4.8 0.00 0.00 0.00 47 1011.8
20260506194502 11 341 1.6 4.8 0.00 0.00 0.00 45 1011.8
20260506194423 11 340 1.6 4.8 0.00 0.00 0.00 47 1011.8
20260506194302 11 349 1.6 4.8 0.00 0.00 0.00 46 1011.8
20260506194202 11 352 1.6 4.8 0.00 0.00 0.00 43 1011.8
20260506194102 11 351 1.6 4.8 0.00 0.00 0.00 43 1011.8
20260506194002 11 350 1.6 4.8 0.00 0.00 0.00 43 1011.8
20260506193902 11 350 1.6 4.8 0.00 0.00 0.00 43 1011.8
20260506193823 11 349 1.6 4.8 0.00 0.00 0.00 44 1011.8
20260506193723 11 347 1.6 4.8 0.00 0.00 0.00 44 1011.9
20260506193602 11 346 1.6 4.8 0.00 0.00 0.00 44 1011.9
20260506193502 11 345 1.6 4.8 0.00 0.00 0.00 43 1011.9
20260506193402 11 346 1.6 4.8 0.00 0.00 0.00 44 1011.9
20260506193302 11 341 1.6 4.8 0.00 0.00 0.00 46 1011.9
20260506193202 11 335 1.6 4.8 0.00 0.00 0.00 44 1011.9
20260506193102 11 336 1.6 4.8 0.00 0.00 0.00 45 1011.9
20260506193002 11 335 1.6 4.8 0.00 0.00 0.00 44 1011.9
20260506192902 11 331 1.6 4.8 0.00 0.00 0.00 45 1012.0
20260506192802 11 335 1.6 4.8 0.00 0.00 0.00 45 1012.0
20260506192702 11 334 1.6 4.8 0.00 0.00 0.00 44 1012.0
20260506192602 11 334 1.6 4.8 0.00 0.00 0.00 46 1012.0
20260506192502 11 341 1.6 4.8 0.00 0.00 0.00 44 1012.1
20260506192402 11 348 1.6 6.4 0.00 0.00 0.00 44 1012.0
20260506192323 11 347 1.6 6.4 0.00 0.00 0.00 44 1012.0
20260506192202 11 348 0.0 6.4 0.00 0.00 0.00 43 1012.0
20260506192103 11 348 1.6 6.4 0.00 0.00 0.00 45 1012.0
20260506192002 11 350 1.6 6.4 0.00 0.00 0.00 44 1012.0
20260506191902 11 350 1.6 6.4 0.00 0.00 0.00 44 1012.0
20260506191802 11 350 1.6 6.4 0.00 0.00 0.00 45 1012.0
20260506191723 11 348 1.6 6.4 0.00 0.00 0.00 45 1012.0
20260506191602 11 352 1.6 6.4 0.00 0.00 0.00 47 1012.2
20260506191502 11 348 1.6 6.4 0.00 0.00 0.00 45 1012.2
20260506191402 11 347 1.6 4.8 0.00 0.00 0.00 47 1012.2
20260506191302 11 350 1.6 4.8 0.00 0.00 0.00 46 1012.2
20260506191224 11 350 1.6 6.4 0.00 0.00 0.00 45 1012.1
20260506191102 11 347 1.6 6.4 0.00 0.00 0.00 44 1012.1
20260506191002 11 342 1.6 6.4 0.00 0.00 0.00 44 1012.1
20260506190902 11 343 3.2 8.0 0.00 0.00 0.00 44 1012.1
20260506190802 11 343 3.2 8.0 0.00 0.00 0.00 44 1012.1
20260506190702 11 348 3.2 8.0 0.00 0.00 0.00 44 1012.3
20260506190602 11 349 3.2 8.0 0.00 0.00 0.00 45 1012.2
20260506190502 11 349 3.2 8.0 0.00 0.00 0.00 44 1012.2
20260506190402 11 348 1.6 8.0 0.00 0.00 0.00 43 1012.2
20260506190302 11 350 1.6 8.0 0.00 0.00 0.00 44 1012.2
20260506190203 11 354 1.6 8.0 0.00 0.00 0.00 44 1012.2
20260506190002 11 5 1.6 8.0 0.00 0.00 0.00 44 1012.2
20260506185902 11 10 1.6 6.4 0.00 0.00 0.00 43 1012.2
20260506185823 11 10 1.6 6.4 0.00 0.00 0.00 45 1012.2
20260506185702 11 288 1.6 9.7 0.00 0.00 0.00 46 1012.2
20260506185602 11 239 1.6 9.7 0.00 0.00 0.00 46 1012.1
20260506185502 11 233 1.6 9.7 0.00 0.00 0.00 46 1012.1
20260506185402 11 266 1.6 9.7 0.00 0.00 0.00 49 1012.0
20260506185323 11 281 1.6 9.7 0.00 0.00 0.00 48 1012.0
20260506185202 11 315 1.6 9.7 0.00 0.00 0.00 47 1012.0
20260506185102 11 315 1.6 9.7 0.00 0.00 0.00 46 1012.0
20260506185002 11 315 1.6 9.7 0.00 0.00 0.00 44 1012.0
20260506184902 11 323 1.6 9.7 0.00 0.00 0.00 46 1012.0
20260506184802 11 338 1.6 9.7 0.00 0.00 0.00 45 1012.0
20260506184723 11 349 1.6 6.4 0.00 0.00 0.00 49 1012.0
20260506184623 10 2 1.6 6.4 0.00 0.00 0.00 47 1011.9
20260506184502 10 4 1.6 6.4 0.00 0.00 0.00 46 1011.9
20260506184402 10 3 1.6 6.4 0.00 0.00 0.00 45 1011.9
20260506184302 10 11 1.6 6.4 0.00 0.00 0.00 45 1011.9
20260506184202 10 12 1.6 6.4 0.00 0.00 0.00 47 1011.9
20260506184123 10 15 1.6 6.4 0.00 0.00 0.00 46 1011.8
20260506184002 10 15 1.6 6.4 0.00 0.00 0.00 45 1011.9
20260506183902 10 23 1.6 6.4 0.00 0.00 0.00 47 1011.9
20260506183802 10 65 1.6 6.4 0.00 0.00 0.00 48 1011.8
20260506183702 10 22 1.6 6.4 0.00 0.00 0.00 50 1011.8
20260506183602 10 356 1.6 6.4 0.00 0.00 0.00 49 1011.8
20260506183503 10 355 1.6 6.4 0.00 0.00 0.00 46 1011.8
20260506183423 10 355 1.6 6.4 0.00 0.00 0.00 47 1011.8
20260506183302 10 345 1.6 6.4 0.00 0.00 0.00 46 1011.8
20260506183202 10 346 1.6 6.4 0.00 0.00 0.00 48 1011.8
20260506183102 10 352 1.6 6.4 0.00 0.00 0.00 48 1011.8
20260506183023 10 358 3.2 6.4 0.00 0.00 0.00 48 1011.9
20260506182902 10 359 3.2 6.4 0.00 0.00 0.00 46 1011.9
20260506182802 10 359 3.2 6.4 0.00 0.00 0.00 45 1011.9
20260506182702 10 358 3.2 6.4 0.00 0.00 0.00 46 1011.9
20260506182602 10 359 3.2 4.8 0.00 0.00 0.00 50 1011.9
20260506182502 10 358 3.2 4.8 0.00 0.00 0.00 47 1011.9
20260506182402 10 356 3.2 4.8 0.00 0.00 0.00 47 1011.9
20260506182323 10 356 3.2 4.8 0.00 0.00 0.00 46 1011.8
20260506182202 10 357 3.2 4.8 0.00 0.00 0.00 47 1011.9
20260506182123 10 354 3.2 4.8 0.00 0.00 0.00 46 1011.9
20260506182023 10 350 3.2 6.4 0.00 0.00 0.00 48 1011.8
20260506181902 10 345 1.6 6.4 0.00 0.00 0.00 46 1011.8
20260506181802 10 344 1.6 6.4 0.00 0.00 0.00 45 1011.9
20260506181702 10 336 1.6 6.4 0.00 0.00 0.00 48 1011.9
20260506181602 10 333 1.6 6.4 0.00 0.00 0.00 48 1011.9
20260506181502 10 341 3.2 6.4 0.00 0.00 0.00 46 1011.9
20260506181402 10 339 3.2 6.4 0.00 0.00 0.00 46 1011.8
20260506181302 10 336 3.2 6.4 0.00 0.00 0.00 46 1011.8
20260506181202 10 330 3.2 6.4 0.00 0.00 0.00 45 1011.8
20260506181102 10 325 1.6 6.4 0.00 0.00 0.00 45 1011.8
20260506181023 10 321 1.6 6.4 0.00 0.00 0.00 47 1011.8
20260506180902 10 336 3.2 9.7 0.00 0.00 0.00 46 1011.8
20260506180823 10 340 3.2 9.7 0.00 0.00 0.00 46 1011.8
20260506180702 10 348 3.2 9.7 0.00 0.00 0.00 45 1011.9
20260506180602 10 351 3.2 9.7 0.00 0.00 0.00 44 1011.9
20260506180502 10 349 3.2 9.7 0.00 0.00 0.00 44 1011.8
20260506180402 10 351 3.2 9.7 0.00 0.00 0.00 46 1011.9
20260506180302 10 351 3.2 9.7 0.00 0.00 0.00 47 1011.9
20260506180202 10 351 3.2 9.7 0.00 0.00 0.00 44 1011.9
20260506180002 11 353 4.8 9.7 0.00 0.00 0.00 45 1011.9
20260506175923 11 349 3.2 9.7 0.00 0.00 0.00 44 1011.8
20260506175802 11 350 3.2 9.7 0.00 0.00 0.00 47 1011.8
20260506175702 11 347 3.2 9.7 0.00 0.00 0.00 46 1011.8
20260506175602 11 343 3.2 9.7 0.00 0.00 0.00 43 1011.9
20260506175523 11 337 3.2 9.7 0.00 0.00 0.00 43 1011.9
20260506175423 11 328 3.2 9.7 0.00 0.00 0.00 44 1011.9
20260506175305 11 332 3.2 9.7 0.00 0.00 0.00 43 1011.9
20260506175202 11 332 3.2 9.7 0.00 0.00 0.00 44 1011.9
20260506175102 11 320 3.2 8.0 0.00 0.00 0.00 44 1011.9
20260506175002 11 314 1.6 8.0 0.00 0.00 0.00 45 1011.9
20260506174923 11 319 1.6 8.0 0.00 0.00 0.00 45 1011.9
20260506174802 11 306 1.6 4.8 0.00 0.00 0.00 48 1011.9
20260506174723 11 320 1.6 4.8 0.00 0.00 0.00 47 1011.9
20260506174602 11 326 1.6 4.8 0.00 0.00 0.00 47 1012.0
20260506174502 11 339 1.6 4.8 0.00 0.00 0.00 45 1012.0
20260506174402 11 346 1.6 4.8 0.00 0.00 0.00 44 1012.0
20260506174302 11 348 1.6 6.4 0.00 0.00 0.00 46 1012.0
20260506174223 11 349 1.6 6.4 0.00 0.00 0.00 52 1012.0
20260506174123 11 349 1.6 6.4 0.00 0.00 0.00 52 1012.0
20260506174023 11 350 1.6 8.0 0.00 0.00 0.00 51 1012.0
20260506173902 10 348 1.6 8.0 0.00 0.00 0.00 46 1012.1
20260506173823 10 345 1.6 8.0 0.00 0.00 0.00 46 1012.1
20260506173702 10 340 1.6 8.0 0.00 0.00 0.00 49 1012.2
20260506173602 10 342 3.2 8.0 0.00 0.00 0.00 49 1012.3
20260506173502 10 346 3.2 8.0 0.00 0.00 0.00 49 1012.3
20260506173402 10 346 3.2 8.0 0.00 0.00 0.00 48 1012.4
20260506173302 10 345 3.2 8.0 0.00 0.00 0.00 46 1012.4
20260506173223 10 346 3.2 8.0 0.00 0.00 0.00 46 1012.4
20260506173123 10 346 3.2 8.0 0.00 0.00 0.00 48 1012.4
20260506173002 10 343 3.2 8.0 0.00 0.00 0.00 47 1012.4
20260506172902 10 340 3.2 8.0 0.00 0.00 0.00 48 1012.4
20260506172802 10 327 3.2 11.3 0.00 0.00 0.00 48 1012.4
20260506172702 10 329 3.2 11.3 0.00 0.00 0.00 51 1012.4
20260506172602 10 330 3.2 11.3 0.00 0.00 0.00 51 1012.4
20260506172502 10 326 3.2 11.3 0.00 0.00 0.00 50 1012.4
20260506172402 10 322 3.2 11.3 0.00 0.00 0.00 49 1012.4
20260506172306 10 312 1.6 11.3 0.00 0.00 0.00 48 1012.5
20260506172202 10 308 1.6 11.3 0.00 0.00 0.00 48 1012.5
20260506172102 10 306 1.6 11.3 0.00 0.00 0.00 51 1012.5
20260506172002 10 322 1.6 11.3 0.00 0.00 0.00 48 1012.5
20260506171903 10 328 1.6 11.3 0.00 0.00 0.00 50 1012.5
20260506171802 10 350 1.6 8.0 0.00 0.00 0.00 51 1012.5
20260506171702 10 349 1.6 8.0 0.00 0.00 0.00 51 1012.5
20260506171602 10 346 1.6 8.0 0.00 0.00 0.00 49 1012.4
20260506171502 10 345 3.2 8.0 0.00 0.00 0.00 48 1012.5
20260506171402 10 345 3.2 8.0 0.00 0.00 0.00 48 1012.5
20260506171302 10 344 3.2 8.0 0.00 0.00 0.00 50 1012.4
20260506171202 10 340 3.2 8.0 0.00 0.00 0.00 48 1012.4
20260506171102 10 341 3.2 8.0 0.00 0.00 0.00 48 1012.4
20260506171002 10 345 3.2 8.0 0.00 0.00 0.00 51 1012.3
20260506170902 10 349 4.8 8.0 0.00 0.00 0.00 48 1012.3
20260506170802 10 347 3.2 8.0 0.00 0.00 0.00 47 1012.3
20260506170702 10 349 3.2 8.0 0.00 0.00 0.00 46 1012.3
20260506170602 10 353 4.8 8.0 0.00 0.00 0.00 47 1012.3
20260506170502 10 354 4.8 8.0 0.00 0.00 0.00 47 1012.3
20260506170402 10 358 4.8 8.0 0.00 0.00 0.00 46 1012.3
20260506170302 10 360 4.8 8.0 0.00 0.00 0.00 46 1012.3
20260506170202 10 4 4.8 8.0 0.00 0.00 0.00 47 1012.2
20260506170002 10 7 3.2 8.0 0.00 0.00 0.00 50 1012.2
20260506165902 10 8 3.2 6.4 0.00 0.00 0.00 50 1012.2
20260506165802 10 8 3.2 6.4 0.00 0.00 0.00 49 1012.2
20260506165702 10 7 3.2 6.4 0.00 0.00 0.00 50 1012.3
20260506165602 10 2 3.2 8.0 0.00 0.00 0.00 49 1012.3
20260506165502 10 5 3.2 8.0 0.00 0.00 0.00 49 1012.3
20260506165402 10 2 3.2 8.0 0.00 0.00 0.00 50 1012.3
20260506165305 10 1 3.2 8.0 0.00 0.00 0.00 48 1012.3
20260506165223 10 357 3.2 8.0 0.00 0.00 0.00 50 1012.3
20260506165102 10 349 3.2 8.0 0.00 0.00 0.00 52 1012.3
20260506165002 10 353 3.2 8.0 0.00 0.00 0.00 49 1012.3
20260506164902 10 352 3.2 8.0 0.00 0.03 0.00 50 1012.4
20260506164802 10 353 3.2 8.0 0.00 0.03 0.00 49 1012.4
20260506164702 10 354 3.2 8.0 0.00 0.03 0.00 49 1012.3
20260506164602 10 353 3.2 6.4 0.00 0.03 0.00 50 1012.3
20260506164502 10 347 3.2 6.4 0.00 0.03 0.00 51 1012.3
20260506164402 10 344 1.6 6.4 0.00 0.03 0.00 52 1012.3
20260506164302 10 342 1.6 6.4 0.00 0.03 0.00 50 1012.3
20260506164202 10 347 1.6 6.4 0.00 0.03 0.00 50 1012.3
20260506164102 10 353 1.6 8.0 0.00 0.03 0.00 50 1012.3
20260506164003 10 351 3.2 12.9 0.00 0.03 0.00 50 1012.3
20260506163902 10 352 3.2 12.9 0.00 0.03 0.00 50 1012.3
20260506163802 10 352 3.2 12.9 0.00 0.03 0.00 50 1012.3
20260506163702 10 351 3.2 12.9 0.00 0.03 0.00 51 1012.4
20260506163602 10 353 3.2 12.9 0.00 0.03 0.00 51 1012.3
20260506163502 10 353 3.2 12.9 0.00 0.03 0.00 51 1012.3
20260506163402 10 353 3.2 12.9 0.00 0.03 0.00 49 1012.2
20260506163302 10 351 3.2 12.9 0.00 0.03 0.00 48 1012.2
20260506163202 10 355 3.2 12.9 0.00 0.03 0.00 48 1012.2
20260506163102 10 355 3.2 12.9 0.00 0.03 0.00 48 1012.2
20260506163002 10 353 3.2 11.3 0.00 0.03 0.00 52 1012.2
20260506162902 10 353 1.6 9.7 0.00 0.03 0.00 53 1012.2
20260506162802 10 353 1.6 9.7 0.00 0.03 0.00 53 1012.2
20260506162702 10 357 3.2 9.7 0.00 0.03 0.00 52 1012.2
20260506162602 9 355 3.2 9.7 0.00 0.03 0.00 53 1012.1
20260506162502 10 357 3.2 9.7 0.00 0.03 0.00 52 1012.1
20260506162402 10 356 3.2 9.7 0.00 0.03 0.00 52 1012.1
20260506162306 10 356 3.2 9.7 0.00 0.03 0.00 52 1012.1
20260506162202 10 352 3.2 8.0 0.00 0.03 0.00 52 1012.1
20260506162102 10 348 3.2 8.0 0.00 0.03 0.00 51 1012.1
20260506162023 10 346 3.2 8.0 0.00 0.03 0.00 52 1012.1
20260506161902 10 346 3.2 8.0 0.00 0.03 0.00 52 1012.0
20260506161802 10 345 3.2 8.0 0.00 0.03 0.00 51 1012.2
20260506161723 10 341 3.2 8.0 0.00 0.03 0.00 49 1012.2
20260506161602 10 342 3.2 8.0 0.00 0.03 0.00 50 1012.3
20260506161502 10 339 3.2 8.0 0.00 0.03 0.00 49 1012.3
20260506161423 10 338 3.2 8.0 0.00 0.03 0.00 50 1012.3
20260506161302 10 333 3.2 8.0 0.00 0.03 0.00 50 1012.3
20260506161202 10 338 3.2 8.0 0.00 0.03 0.00 49 1012.3
20260506161102 10 334 3.2 8.0 0.00 0.03 0.00 49 1012.3
20260506161002 10 333 3.2 8.0 0.00 0.03 0.00 49 1012.3
20260506160902 10 333 3.2 8.0 0.00 0.03 0.00 50 1012.2
20260506160802 10 337 3.2 12.9 0.00 0.03 0.00 50 1012.2
20260506160702 10 340 3.2 12.9 0.00 0.03 0.00 51 1012.2
20260506160623 10 342 3.2 12.9 0.00 0.03 0.00 52 1012.2
20260506160523 10 342 3.2 12.9 0.00 0.03 0.00 53 1012.2
20260506160402 10 340 3.2 12.9 0.00 0.03 0.00 50 1012.2
20260506160302 10 338 3.2 12.9 0.00 0.03 0.00 49 1012.3
20260506160202 10 330 3.2 12.9 0.00 0.03 0.00 49 1012.3
20260506160002 10 334 1.6 12.9 0.00 0.03 0.00 50 1012.2
20260506155902 10 329 1.6 12.9 0.00 0.03 0.00 49 1012.2
20260506155802 10 322 1.6 12.9 0.00 0.03 0.00 52 1012.3
20260506155702 10 313 1.6 8.0 0.00 0.03 0.00 52 1012.3
20260506155602 10 308 1.6 8.0 0.00 0.03 0.00 52 1012.3
20260506155523 10 318 3.2 8.0 0.00 0.03 0.00 55 1012.3
20260506155402 10 335 3.2 8.0 0.00 0.03 0.00 54 1012.2
20260506155305 10 342 3.2 8.0 0.00 0.03 0.00 57 1012.3
20260506155202 10 345 3.2 8.0 0.00 0.03 0.00 53 1012.3
20260506155102 10 345 3.2 8.0 0.00 0.03 0.00 52 1012.2
20260506155002 10 348 3.2 8.0 0.00 0.03 0.00 52 1012.0
20260506154902 10 350 3.2 8.0 0.00 0.03 0.00 50 1012.0
20260506154802 10 351 3.2 9.7 0.00 0.03 0.00 52 1012.1
20260506154702 10 354 3.2 9.7 0.00 0.03 0.00 52 1012.0
20260506154602 10 357 3.2 9.7 0.00 0.03 0.00 53 1012.0
20260506154502 10 357 3.2 9.7 0.00 0.03 0.00 51 1012.0
20260506154402 10 353 3.2 9.7 0.00 0.03 0.00 53 1012.0
20260506154302 10 353 3.2 9.7 0.00 0.03 0.00 50 1012.0
20260506154202 10 353 3.2 9.7 0.00 0.03 0.00 52 1012.0
20260506154102 10 350 3.2 9.7 0.00 0.05 0.00 52 1012.0
20260506154002 10 349 3.2 9.7 0.00 0.05 0.00 52 1012.0
20260506153902 10 351 3.2 9.7 0.00 0.05 0.00 52 1012.0
20260506153802 10 351 3.2 8.0 0.00 0.05 0.00 53 1012.0
20260506153724 10 355 3.2 8.0 0.00 0.05 0.00 52 1012.0
20260506153602 10 352 3.2 8.0 0.00 0.05 0.00 52 1012.0
20260506153502 10 354 3.2 8.0 0.00 0.05 0.00 52 1012.0
20260506153402 10 354 3.2 8.0 0.00 0.05 0.00 49 1012.0
20260506153302 10 352 3.2 8.0 0.00 0.05 0.00 50 1012.0
20260506153223 10 350 3.2 8.0 0.00 0.05 0.00 49 1012.0
20260506153102 10 346 3.2 8.0 0.00 0.05 0.00 51 1011.9
20260506153002 10 341 3.2 8.0 0.00 0.05 0.00 52 1011.9
20260506152902 10 331 3.2 8.0 0.00 0.05 0.00 50 1011.8
20260506152802 11 324 3.2 8.0 0.00 0.05 0.00 50 1011.8
20260506152723 11 311 1.6 8.0 0.00 0.05 0.00 49 1011.9
20260506152623 11 316 1.6 8.0 0.00 0.05 0.00 50 1011.9
20260506152502 11 309 3.2 8.0 0.00 0.05 0.00 50 1011.8
20260506152402 11 302 3.2 8.0 0.00 0.05 0.00 52 1011.8
20260506152305 11 291 3.2 12.9 0.00 0.05 0.00 51 1011.8
20260506152202 11 289 3.2 12.9 0.00 0.05 0.00 50 1011.8
20260506152102 11 299 3.2 12.9 0.00 0.05 0.00 53 1011.8
20260506152002 11 293 3.2 12.9 0.00 0.05 0.00 53 1011.8
20260506151902 11 292 3.2 12.9 0.00 0.05 0.00 53 1011.8
20260506151802 11 293 3.2 12.9 0.00 0.05 0.00 51 1011.8
20260506151702 11 295 3.2 12.9 0.00 0.05 0.00 50 1011.8
20260506151602 11 284 3.2 12.9 0.00 0.05 0.00 50 1011.8
20260506151502 11 288 3.2 12.9 0.00 0.05 0.00 53 1011.8
20260506151402 11 309 3.2 12.9 0.00 0.05 0.00 51 1011.9
20260506151302 10 329 3.2 11.3 0.00 0.05 0.00 54 1011.9
20260506151202 10 339 4.8 11.3 0.00 0.05 0.00 52 1011.8
20260506151102 10 341 4.8 11.3 0.00 0.05 0.00 51 1011.7
20260506151002 10 345 3.2 11.3 0.00 0.05 0.00 52 1011.7
20260506150902 10 347 4.8 11.3 0.00 0.05 0.00 51 1011.8
20260506150823 10 348 4.8 11.3 0.00 0.05 0.00 52 1011.8
20260506150702 10 350 3.2 11.3 0.00 0.05 0.00 52 1011.7
20260506150623 10 351 3.2 11.3 0.00 0.05 0.00 51 1011.7
20260506150502 10 352 4.8 11.3 0.00 0.05 0.00 49 1011.8
20260506150402 10 352 4.8 11.3 0.00 0.05 0.00 50 1011.8
20260506150304 10 353 3.2 11.3 0.00 0.05 0.00 50 1011.8
20260506150202 10 352 3.2 11.3 0.00 0.05 0.00 51 1011.7
20260506150002 10 354 3.2 11.3 0.00 0.05 0.00 53 1011.8
20260506145902 10 356 3.2 11.3 0.00 0.05 0.00 52 1011.7
20260506145802 10 354 3.2 11.3 0.00 0.05 0.00 52 1011.8
20260506145702 10 355 3.2 11.3 0.00 0.05 0.00 50 1011.8
20260506145602 10 357 1.6 11.3 0.00 0.05 0.00 50 1011.7
20260506145502 10 355 1.6 11.3 0.00 0.05 0.00 52 1011.7
20260506145402 10 358 1.6 4.8 0.00 0.05 0.00 51 1011.6
20260506145305 10 360 1.6 4.8 0.00 0.05 0.00 51 1011.6
20260506145223 10 356 1.6 4.8 0.00 0.05 0.00 54 1011.6
20260506145102 10 316 1.6 4.8 0.00 0.05 0.00 52 1011.6
20260506145002 10 317 1.6 4.8 0.00 0.05 0.00 52 1011.6
20260506144902 10 278 1.6 4.8 0.00 0.05 0.00 53 1011.6
20260506144802 11 261 1.6 4.8 0.00 0.05 0.00 54 1011.7
20260506144702 11 284 1.6 4.8 0.00 0.05 0.00 56 1011.7
20260506144602 10 339 1.6 4.8 0.00 0.05 0.00 55 1011.7
20260506144502 10 12 1.6 6.4 0.00 0.05 0.00 54 1011.7
20260506144402 10 15 1.6 6.4 0.00 0.05 0.00 54 1011.7
20260506144323 10 21 1.6 6.4 0.00 0.05 0.00 53 1011.7
20260506144202 10 14 1.6 6.4 0.00 0.05 0.00 57 1011.7
20260506144102 10 15 1.6 6.4 0.00 0.05 0.00 58 1011.7
20260506144002 10 14 3.2 6.4 0.00 0.05 0.00 57 1011.6
20260506143902 10 16 3.2 6.4 0.00 0.05 0.00 56 1011.6
20260506143802 10 16 3.2 6.4 0.00 0.05 0.00 54 1011.6
20260506143723 10 15 3.2 6.4 0.00 0.05 0.00 55 1011.6
20260506143602 10 11 3.2 6.4 0.00 0.05 0.00 55 1011.6
20260506143502 10 7 1.6 6.4 0.00 0.05 0.00 56 1011.6
20260506143402 10 6 1.6 6.4 0.00 0.05 0.00 57 1011.6
20260506143302 10 5 1.6 6.4 0.00 0.05 0.00 56 1011.5
20260506143223 10 6 1.6 6.4 0.00 0.05 0.00 58 1011.5
20260506143102 10 8 1.6 6.4 0.00 0.05 0.00 58 1011.5
20260506143002 10 11 1.6 8.0 0.00 0.05 0.00 60 1011.4
20260506142902 10 9 3.2 8.0 0.00 0.05 0.00 58 1011.4
20260506142802 10 8 3.2 8.0 0.00 0.05 0.00 59 1011.4
20260506142702 10 8 3.2 8.0 0.00 0.05 0.00 57 1011.4
20260506142602 10 7 3.2 8.0 0.00 0.05 0.00 58 1011.4
20260506142502 10 6 3.2 8.0 0.00 0.05 0.00 58 1011.4
20260506142402 10 360 3.2 8.0 0.00 0.05 0.00 57 1011.4
20260506142305 10 357 3.2 8.0 0.00 0.05 0.00 56 1011.4
20260506142202 10 356 1.6 8.0 0.00 0.05 0.00 58 1011.4
20260506142102 10 355 1.6 8.0 0.00 0.05 0.00 56 1011.4
20260506142002 10 347 1.6 4.8 0.00 0.05 0.00 55 1011.4
20260506141902 10 339 1.6 4.8 0.00 0.05 0.00 54 1011.4
20260506141802 10 340 1.6 6.4 0.00 0.05 0.00 54 1011.4
20260506141702 10 340 1.6 6.4 0.00 0.05 0.00 54 1011.4
20260506141602 10 340 1.6 6.4 0.00 0.05 0.00 56 1011.4
20260506141502 10 339 1.6 6.4 0.00 0.05 0.00 59 1011.4
20260506141423 10 339 1.6 6.4 0.00 0.05 0.00 59 1011.4
20260506141302 10 340 1.6 8.0 0.00 0.05 0.00 59 1011.3
20260506141224 10 340 1.6 8.0 0.00 0.05 0.00 59 1011.3
20260506141102 10 341 1.6 8.0 0.00 0.05 0.00 56 1011.4
20260506141002 10 343 3.2 8.0 0.00 0.05 0.00 57 1011.3
20260506140902 10 344 3.2 8.0 0.00 0.05 0.00 56 1011.3
20260506140823 10 344 3.2 8.0 0.00 0.05 0.00 57 1011.3
20260506140702 9 342 3.2 8.0 0.00 0.05 0.00 57 1011.3
20260506140602 9 345 3.2 8.0 0.00 0.05 0.00 57 1011.3
20260506140502 9 349 3.2 8.0 0.00 0.05 0.00 55 1011.3
20260506140423 9 350 3.2 8.0 0.00 0.05 0.00 54 1011.3
20260506140302 9 353 1.6 6.4 0.00 0.05 0.00 56 1011.2
20260506140202 9 354 1.6 6.4 0.00 0.05 0.00 60 1011.2
20260506140123 9 355 1.6 6.4 0.00 0.05 0.00 60 1011.2
20260506140023 9 356 1.6 6.4 0.00 0.05 0.00 59 1011.2
20260506135902 9 355 1.6 6.4 0.00 0.05 0.00 63 1011.1
20260506135802 9 354 3.2 6.4 0.00 0.05 0.00 62 1011.1
20260506135702 9 352 3.2 6.4 0.00 0.05 0.00 61 1011.1
20260506135602 9 353 1.6 6.4 0.00 0.05 0.00 65 1011.1
20260506135502 9 350 3.2 6.4 0.00 0.05 0.00 65 1011.0
20260506135402 8 352 3.2 6.4 0.00 0.05 0.00 65 1011.0
20260506135305 8 351 3.2 9.7 0.00 0.05 0.00 64 1011.0
20260506135202 8 351 4.8 9.7 0.00 0.05 0.00 64 1011.0
20260506135102 8 353 4.8 9.7 0.00 0.05 0.00 65 1011.0
20260506135002 8 356 4.8 11.3 0.00 0.05 0.00 64 1011.0
20260506134923 8 358 4.8 11.3 0.00 0.05 0.00 64 1010.9
20260506134823 8 358 4.8 11.3 0.00 0.05 0.00 64 1010.9
20260506134702 8 360 3.2 11.3 0.00 0.05 0.00 65 1011.0
20260506134602 8 1 4.8 11.3 0.00 0.05 0.00 64 1011.0
20260506134502 8 1 3.2 11.3 0.00 0.05 0.00 64 1011.0
20260506134402 8 2 3.2 11.3 0.00 0.05 0.00 63 1011.0
20260506134302 8 3 3.2 11.3 0.00 0.05 0.00 62 1011.0
20260506134202 8 6 3.2 11.3 0.00 0.05 0.00 62 1011.0
20260506134102 8 10 3.2 11.3 0.00 0.05 0.00 62 1010.9
20260506134002 8 7 3.2 6.4 0.00 0.05 0.00 63 1010.9
20260506133902 8 6 3.2 6.4 0.00 0.05 0.00 65 1010.9
20260506133802 8 7 3.2 6.4 0.00 0.05 0.00 63 1010.9
20260506133702 8 6 3.2 6.4 0.00 0.05 0.00 63 1011.0
20260506133602 8 5 3.2 6.4 0.00 0.05 0.00 63 1011.0
20260506133502 9 5 3.2 6.4 0.00 0.05 0.00 63 1011.0
20260506133424 8 5 3.2 6.4 0.00 0.05 0.00 63 1011.0
20260506133302 8 4 3.2 6.4 0.00 0.05 0.00 62 1011.0
20260506133202 9 4 3.2 6.4 0.00 0.05 0.00 63 1011.0
20260506133102 9 360 1.6 6.4 0.00 0.05 0.00 64 1010.9
20260506133002 9 358 1.6 6.4 0.00 0.05 0.00 61 1010.9
20260506132902 9 354 1.6 6.4 0.00 0.05 0.00 62 1010.9
20260506132802 9 354 3.2 8.0 0.00 0.05 0.00 62 1010.9
20260506132702 9 353 1.6 8.0 0.00 0.05 0.00 62 1010.9
20260506132602 9 351 1.6 8.0 0.00 0.05 0.00 61 1010.8
20260506132502 9 348 1.6 8.0 0.00 0.05 0.00 62 1010.8
20260506132402 8 344 1.6 8.0 0.00 0.05 0.00 62 1010.8
20260506132305 8 343 1.6 8.0 0.00 0.05 0.00 61 1010.8
20260506132202 8 344 1.6 8.0 0.00 0.05 0.00 60 1010.8
20260506132102 8 346 1.6 8.0 0.00 0.05 0.00 60 1010.8
20260506132002 8 347 1.6 8.0 0.00 0.05 0.00 61 1010.7
20260506131902 8 347 1.6 8.0 0.00 0.05 0.00 60 1010.7
20260506131802 8 345 1.6 8.0 0.00 0.05 0.00 61 1010.8
20260506131703 8 345 1.6 8.0 0.00 0.05 0.00 62 1010.8
20260506131623 8 345 1.6 8.0 0.00 0.05 0.00 60 1010.7
20260506131502 8 349 1.6 8.0 0.00 0.05 0.00 60 1010.8
20260506131402 8 349 1.6 8.0 0.00 0.05 0.00 60 1010.8
20260506131323 8 348 3.2 8.0 0.00 0.05 0.00 60 1010.8
20260506131202 8 348 3.2 8.0 0.00 0.05 0.00 60 1010.8
20260506131124 8 346 3.2 8.0 0.00 0.05 0.00 59 1010.7
20260506131023 8 343 3.2 6.4 0.00 0.05 0.00 61 1010.7
20260506130902 8 353 3.2 8.0 0.00 0.05 0.00 61 1010.7
20260506130823 8 355 3.2 8.0 0.00 0.05 0.00 61 1010.7
20260506130702 8 354 3.2 8.0 0.00 0.05 0.00 61 1010.7
20260506130602 8 355 3.2 8.0 0.00 0.05 0.00 59 1010.6
20260506130502 8 354 3.2 8.0 0.00 0.05 0.00 60 1010.6
20260506130423 8 354 3.2 8.0 0.00 0.05 0.00 60 1010.6
20260506130302 8 358 1.6 8.0 0.00 0.05 0.00 60 1010.6
20260506130202 8 360 1.6 8.0 0.00 0.05 0.00 61 1010.5
20260506130002 8 6 1.6 8.0 0.00 0.05 0.00 60 1010.4
20260506125902 8 360 1.6 4.8 0.00 0.05 0.00 60 1010.4
20260506125802 8 1 1.6 4.8 0.00 0.05 0.00 61 1010.4
20260506125702 8 7 1.6 4.8 0.00 0.05 0.00 60 1010.4
20260506125602 8 6 1.6 4.8 0.00 0.05 0.00 59 1010.4
20260506125523 8 7 1.6 4.8 0.00 0.05 0.00 61 1010.4
20260506125403 8 7 1.6 4.8 0.00 0.05 0.00 61 1010.4
20260506125323 8 7 1.6 4.8 0.00 0.05 0.00 62 1010.4
20260506125223 8 7 1.6 4.8 0.00 0.05 0.00 62 1010.4
20260506125123 8 7 1.6 4.8 0.00 0.05 0.00 61 1010.5
20260506125002 8 5 1.6 4.8 0.00 0.05 0.00 61 1010.5
20260506124902 8 1 1.6 4.8 0.00 0.05 0.00 61 1010.5
20260506124802 8 357 1.6 4.8 0.00 0.05 0.00 61 1010.4
20260506124702 7 349 1.6 4.8 0.00 0.05 0.00 62 1010.5
20260506124602 7 346 1.6 4.8 0.00 0.05 0.00 61 1010.5
20260506124502 7 342 1.6 4.8 0.00 0.05 0.00 62 1010.5
20260506124402 7 337 1.6 4.8 0.00 0.05 0.00 62 1010.4
20260506124302 7 332 1.6 4.8 0.00 0.05 0.00 62 1010.4
20260506124202 7 332 1.6 4.8 0.00 0.05 0.00 62 1010.3
20260506124102 7 332 1.6 4.8 0.00 0.05 0.00 61 1010.3
20260506124002 7 332 1.6 4.8 0.00 0.05 0.00 61 1010.3
20260506123923 7 328 1.6 4.8 0.00 0.05 0.00 61 1010.3
20260506123802 7 314 0.0 3.2 0.00 0.05 0.00 60 1010.2
20260506123723 7 314 0.0 3.2 0.00 0.05 0.00 61 1010.2
20260506123602 7 299 0.0 3.2 0.00 0.05 0.00 61 1010.2
20260506123502 7 276 0.0 3.2 0.00 0.05 0.00 60 1010.2
20260506123402 7 262 0.0 3.2 0.00 0.05 0.00 64 1010.2
20260506123302 7 231 0.0 1.6 0.00 0.05 0.00 64 1010.2
20260506123202 7 231 0.0 1.6 0.00 0.05 0.00 62 1010.1
20260506123123 7 231 0.0 1.6 0.00 0.05 0.00 62 1010.1
20260506123023 7 0 0.0 0.0 0.00 0.05 0.00 61 1010.1
20260506122902 7 0 0.0 0.0 0.00 0.05 0.00 62 1010.0
20260506122802 7 231 0.0 1.6 0.00 0.05 0.00 63 1010.0
20260506122702 7 231 0.0 1.6 0.00 0.05 0.00 63 1010.0
20260506122602 7 231 0.0 1.6 0.00 0.05 0.00 64 1010.0
20260506122523 7 230 0.0 1.6 0.00 0.05 0.00 65 1010.0
20260506122402 7 230 0.0 1.6 0.00 0.05 0.00 65 1010.0
20260506122305 7 230 0.0 1.6 0.00 0.05 0.00 63 1010.0
20260506122202 7 230 0.0 1.6 0.00 0.05 0.00 64 1010.0
20260506122102 7 241 0.0 1.6 0.00 0.05 0.00 64 1010.0
20260506122023 7 241 0.0 1.6 0.00 0.05 0.00 63 1010.0
20260506121902 7 241 0.0 1.6 0.00 0.05 0.00 64 1010.0
20260506121802 7 270 0.0 1.6 0.00 0.05 0.00 65 1010.0
20260506121723 6 270 0.0 1.6 0.00 0.05 0.00 65 1010.0
20260506121623 6 270 0.0 1.6 0.00 0.05 0.00 66 1010.0
20260506121502 6 349 0.0 1.6 0.00 0.05 0.00 65 1010.1
20260506121402 6 349 0.0 1.6 0.00 0.05 0.00 64 1010.0
20260506121302 6 349 0.0 1.6 0.00 0.05 0.00 65 1010.0
20260506121223 6 349 0.0 1.6 0.00 0.05 0.00 65 1010.0
20260506121123 6 0 0.0 0.0 0.00 0.05 0.00 66 1010.0
20260506121002 6 0 0.0 0.0 0.00 0.05 0.00 65 1010.0
20260506120902 6 0 0.0 0.0 0.00 0.05 0.00 66 1010.0
20260506120802 6 0 0.0 0.0 0.00 0.05 0.00 66 1009.9
20260506120702 6 0 0.0 0.0 0.00 0.05 0.00 65 1009.9
20260506120602 6 0 0.0 0.0 0.00 0.05 0.00 66 1009.9
20260506120523 6 0 0.0 0.0 0.00 0.05 0.00 67 1009.9
20260506120402 6 0 0.0 0.0 0.00 0.05 0.00 67 1009.8
20260506120302 6 0 0.0 0.0 0.00 0.05 0.00 68 1009.9
20260506120202 6 0 0.0 0.0 0.00 0.05 0.00 69 1009.9
20260506120002 6 0 0.0 0.0 0.00 0.05 0.00 68 1009.9
20260506115923 6 0 0.0 0.0 0.00 0.05 0.00 67 1009.9
20260506115802 6 0 0.0 0.0 0.00 0.05 0.00 68 1009.9
20260506115723 6 0 0.0 0.0 0.00 0.05 0.00 69 1009.9
20260506115602 6 0 0.0 0.0 0.00 0.05 0.00 68 1009.9
20260506115502 6 0 0.0 0.0 0.00 0.05 0.00 68 1009.9
20260506115423 6 0 0.0 0.0 0.00 0.05 0.00 69 1009.9
20260506115306 6 0 0.0 0.0 0.00 0.05 0.00 68 1009.8
20260506115202 6 0 0.0 0.0 0.00 0.05 0.00 68 1009.8
20260506115102 6 0 0.0 0.0 0.00 0.05 0.00 70 1009.8
20260506115002 6 0 0.0 0.0 0.00 0.05 0.00 69 1009.8
20260506114902 6 352 0.0 3.2 0.00 0.05 0.00 69 1009.8
20260506114802 6 355 0.0 3.2 0.00 0.05 0.00 69 1009.8
20260506114702 6 355 0.0 3.2 0.00 0.05 0.00 70 1009.8
20260506114602 6 358 0.0 3.2 0.00 0.05 0.00 70 1009.8
20260506114502 5 358 0.0 3.2 0.00 0.05 0.00 69 1009.8
20260506114402 5 358 0.0 3.2 0.00 0.05 0.00 68 1009.8
20260506114323 5 359 0.0 3.2 0.00 0.05 0.00 68 1009.8
20260506114202 5 359 0.0 3.2 0.00 0.05 0.00 68 1009.8
20260506114123 5 359 0.0 3.2 0.00 0.05 0.00 68 1009.8
20260506114023 5 359 0.0 3.2 0.00 0.05 0.00 69 1009.8
20260506113923 5 360 0.0 3.2 0.00 0.05 0.00 71 1009.8
20260506113802 5 6 0.0 1.6 0.00 0.05 0.00 72 1009.9
20260506113703 5 6 0.0 1.6 0.00 0.05 0.00 72 1009.8
20260506113602 5 6 0.0 1.6 0.00 0.05 0.00 72 1009.8
20260506113523 5 6 0.0 1.6 0.00 0.05 0.00 72 1009.7
20260506113402 5 6 0.0 1.6 0.00 0.05 0.00 75 1009.7
20260506113302 5 0 0.0 0.0 0.00 0.05 0.00 77 1009.7
20260506113202 5 0 0.0 0.0 0.00 0.05 0.00 76 1009.6
20260506113102 5 0 0.0 0.0 0.00 0.05 0.00 76 1009.5
20260506113002 5 0 0.0 0.0 0.00 0.05 0.00 76 1009.5
20260506112923 5 0 0.0 0.0 0.00 0.05 0.00 76 1009.5
20260506112802 5 0 0.0 0.0 0.00 0.05 0.00 76 1009.5
20260506112702 5 0 0.0 0.0 0.00 0.05 0.00 75 1009.5
20260506112623 5 0 0.0 0.0 0.00 0.05 0.00 75 1009.5
20260506112502 4 0 0.0 0.0 0.00 0.05 0.00 75 1009.4
20260506112402 5 0 0.0 0.0 0.00 0.05 0.00 77 1009.4
20260506112305 4 0 0.0 0.0 0.00 0.05 0.00 77 1009.4
20260506112223 4 0 0.0 0.0 0.00 0.05 0.00 77 1009.3
20260506112102 4 0 0.0 0.0 0.00 0.05 0.00 76 1009.4
20260506112023 4 0 0.0 0.0 0.00 0.05 0.00 76 1009.4
20260506111902 4 0 0.0 0.0 0.00 0.05 0.00 76 1009.4
20260506111803 4 0 0.0 0.0 0.00 0.05 0.00 77 1009.4
20260506111702 4 0 0.0 0.0 0.00 0.05 0.00 76 1009.4
20260506111602 4 0 0.0 0.0 0.00 0.05 0.00 75 1009.4
20260506111502 4 0 0.0 0.0 0.00 0.05 0.00 75 1009.4
20260506111402 4 0 0.0 0.0 0.00 0.05 0.00 75 1009.4
20260506111302 4 0 0.0 0.0 0.00 0.05 0.00 76 1009.4
20260506111202 4 0 0.0 0.0 0.00 0.05 0.00 76 1009.4
20260506111102 4 0 0.0 0.0 0.00 0.05 0.00 76 1009.4
20260506111002 4 0 0.0 0.0 0.00 0.05 0.00 76 1009.4
20260506110902 5 0 0.0 0.0 0.00 0.05 0.00 76 1009.3
20260506110802 5 0 0.0 0.0 0.00 0.05 0.00 76 1009.3
20260506110702 5 0 0.0 0.0 0.00 0.05 0.00 77 1009.3
20260506110623 5 0 0.0 0.0 0.00 0.05 0.00 77 1009.4
20260506110523 5 0 0.0 0.0 0.00 0.05 0.00 77 1009.4
20260506110402 5 0 0.0 0.0 0.00 0.05 0.00 77 1009.3
20260506110302 5 0 0.0 0.0 0.00 0.05 0.00 77 1009.3
20260506110202 5 0 0.0 0.0 0.00 0.05 0.00 77 1009.3
20260506110023 5 0 0.0 0.0 0.00 0.05 0.00 76 1009.3
20260506105923 5 0 0.0 0.0 0.00 0.05 0.00 76 1009.3
20260506105802 5 0 0.0 0.0 0.00 0.05 0.00 75 1009.2
20260506105702 5 0 0.0 0.0 0.00 0.05 0.00 75 1009.2
20260506105602 5 0 0.0 0.0 0.00 0.05 0.00 74 1009.2
20260506105502 5 0 0.0 0.0 0.00 0.05 0.00 73 1009.1
20260506105402 5 0 0.0 0.0 0.00 0.05 0.00 74 1009.1
20260506105305 5 0 0.0 0.0 0.00 0.05 0.00 73 1009.2
20260506105202 5 0 0.0 0.0 0.00 0.05 0.00 73 1009.2
20260506105102 5 0 0.0 0.0 0.00 0.05 0.00 73 1009.1
20260506105002 5 0 0.0 0.0 0.00 0.05 0.00 73 1009.1
20260506104902 5 0 0.0 0.0 0.00 0.05 0.00 73 1009.1
20260506104802 5 0 0.0 0.0 0.00 0.05 0.00 73 1009.1
20260506104702 5 0 0.0 0.0 0.00 0.05 0.00 72 1009.1
20260506104602 5 0 0.0 0.0 0.00 0.05 0.00 72 1009.0
20260506104502 5 0 0.0 0.0 0.00 0.05 0.00 72 1009.0
20260506104402 5 0 0.0 0.0 0.00 0.05 0.00 72 1009.0
20260506104302 5 0 0.0 0.0 0.00 0.05 0.00 72 1009.0
20260506104202 5 0 0.0 0.0 0.00 0.05 0.00 72 1009.0
20260506104123 5 0 0.0 0.0 0.00 0.05 0.00 72 1009.0
20260506104023 5 0 0.0 0.0 0.00 0.05 0.00 72 1009.0
20260506103902 6 0 0.0 0.0 0.00 0.05 0.00 71 1009.0
20260506103802 6 0 0.0 0.0 0.00 0.05 0.00 71 1009.0
20260506103702 6 0 0.0 0.0 0.00 0.05 0.00 70 1009.0
20260506103602 6 0 0.0 0.0 0.00 0.05 0.00 71 1009.0
20260506103502 6 0 0.0 0.0 0.00 0.05 0.00 70 1009.0
20260506103402 6 0 0.0 0.0 0.00 0.05 0.00 69 1009.0
20260506103302 6 0 0.0 0.0 0.00 0.05 0.00 68 1008.9
20260506103202 6 0 0.0 0.0 0.00 0.05 0.00 67 1009.0
20260506103102 6 0 0.0 0.0 0.00 0.05 0.00 67 1009.0
20260506103023 6 0 0.0 0.0 0.00 0.05 0.00 67 1008.9
20260506102902 6 0 0.0 0.0 0.00 0.05 0.00 67 1008.9
20260506102802 6 0 0.0 0.0 0.00 0.05 0.00 66 1008.9
20260506102702 6 6 0.0 1.6 0.00 0.05 0.00 64 1008.8
20260506102623 6 6 0.0 1.6 0.00 0.05 0.00 66 1008.8
20260506102502 6 6 0.0 1.6 0.00 0.05 0.00 64 1008.8
20260506102423 6 6 0.0 1.6 0.00 0.05 0.00 64 1008.8
20260506102323 6 6 0.0 1.6 0.00 0.05 0.00 64 1008.8
20260506102223 6 6 0.0 1.6 0.00 0.05 0.00 64 1008.7
20260506102102 6 6 0.0 1.6 0.00 0.05 0.00 65 1008.7
20260506102002 6 6 0.0 1.6 0.00 0.05 0.00 64 1008.8
20260506101923 6 6 0.0 1.6 0.00 0.05 0.00 64 1008.8
20260506101802 6 6 0.0 1.6 0.00 0.05 0.00 65 1008.8
20260506101702 6 0 0.0 0.0 0.00 0.05 0.00 63 1008.9
20260506101602 6 0 0.0 0.0 0.00 0.05 0.00 63 1008.9
20260506101502 6 0 0.0 0.0 0.00 0.05 0.00 62 1008.9
20260506101402 6 0 0.0 0.0 0.00 0.05 0.00 62 1009.0
20260506101302 6 0 0.0 0.0 0.00 0.05 0.00 62 1009.0
20260506101223 6 0 0.0 0.0 0.00 0.05 0.00 62 1009.0
20260506101102 6 0 0.0 0.0 0.00 0.05 0.00 63 1009.0
20260506101002 6 0 0.0 0.0 0.00 0.05 0.00 63 1009.0
20260506100902 6 6 0.0 1.6 0.00 0.05 0.00 63 1008.9
20260506100802 7 6 0.0 1.6 0.00 0.05 0.00 64 1008.9
20260506100723 7 6 0.0 1.6 0.00 0.05 0.00 64 1008.9
20260506100602 7 6 0.0 1.6 0.00 0.05 0.00 62 1008.9
20260506100502 7 6 0.0 1.6 0.00 0.05 0.00 62 1008.9
20260506100423 7 6 0.0 1.6 0.00 0.05 0.00 61 1008.9
20260506100302 7 6 0.0 1.6 0.00 0.05 0.00 62 1008.9
20260506100202 7 6 0.0 1.6 0.00 0.05 0.00 61 1008.9
20260506100002 7 6 0.0 1.6 0.00 0.05 0.00 62 1008.7
20260506095902 7 6 0.0 1.6 0.00 0.05 0.00 62 1008.7
20260506095802 7 6 0.0 1.6 0.00 0.05 0.00 62 1008.7
20260506095702 7 12 0.0 1.6 0.00 0.05 0.00 62 1008.7
20260506095602 7 6 0.0 1.6 0.00 0.05 0.00 63 1008.8
20260506095523 7 6 0.0 1.6 0.00 0.05 0.00 63 1008.8
20260506095402 7 6 0.0 1.6 0.00 0.05 0.00 61 1008.8
20260506095305 7 6 0.0 1.6 0.00 0.05 0.00 61 1008.8
20260506095202 7 6 0.0 1.6 0.00 0.05 0.00 62 1008.8
20260506095123 7 6 0.0 1.6 0.00 0.05 0.00 62 1008.7
20260506095023 7 6 0.0 1.6 0.00 0.05 0.00 62 1008.7
20260506094923 7 6 0.0 1.6 0.00 0.05 0.00 62 1008.7
20260506094802 7 6 0.0 1.6 0.00 0.05 0.00 61 1008.5
20260506094723 7 1 0.0 1.6 0.00 0.05 0.00 62 1008.5
20260506094602 7 0 0.0 0.0 0.00 0.05 0.00 62 1008.5
20260506094502 7 0 0.0 0.0 0.00 0.05 0.00 61 1008.5
20260506094402 7 0 0.0 0.0 0.00 0.05 0.00 60 1008.5
20260506094302 7 0 0.0 0.0 0.00 0.05 0.00 60 1008.5
20260506094202 7 0 0.0 0.0 0.00 0.05 0.00 60 1008.5
20260506094102 7 0 0.0 0.0 0.00 0.05 0.00 61 1008.4
20260506094002 7 0 0.0 0.0 0.00 0.05 0.00 61 1008.4
20260506093902 7 0 0.0 0.0 0.00 0.05 0.00 61 1008.4
20260506093802 7 0 0.0 0.0 0.00 0.05 0.00 61 1008.3
20260506093702 7 0 0.0 0.0 0.00 0.05 0.00 61 1008.3
20260506093623 7 0 0.0 0.0 0.00 0.05 0.00 61 1008.3
20260506093502 7 0 0.0 0.0 0.00 0.05 0.00 60 1008.2
20260506093423 7 0 0.0 0.0 0.00 0.05 0.00 61 1008.2
20260506093302 7 0 0.0 0.0 0.00 0.05 0.00 60 1008.2
20260506093202 7 1 0.0 1.6 0.00 0.05 0.00 60 1008.2
20260506093102 7 1 0.0 1.6 0.00 0.05 0.00 61 1008.2
20260506093023 7 1 0.0 1.6 0.00 0.05 0.00 61 1008.2
20260506092902 7 1 0.0 1.6 0.00 0.05 0.00 62 1008.3
20260506092802 7 1 0.0 1.6 0.00 0.05 0.00 61 1008.3
20260506092723 7 1 0.0 1.6 0.00 0.05 0.00 60 1008.3
20260506092602 7 1 0.0 1.6 0.00 0.05 0.00 60 1008.2
20260506092502 7 1 0.0 3.2 0.00 0.05 0.00 60 1008.1
20260506092402 7 360 0.0 3.2 0.00 0.05 0.00 60 1008.1
20260506092305 7 360 0.0 3.2 0.00 0.05 0.00 60 1008.1
20260506092202 7 360 0.0 3.2 0.00 0.05 0.00 60 1008.1
20260506092123 7 360 0.0 3.2 0.00 0.05 0.00 60 1008.1
20260506092023 7 360 0.0 3.2 0.00 0.05 0.00 60 1008.1
20260506091902 7 360 0.0 3.2 0.00 0.05 0.00 61 1008.1
20260506091823 7 360 0.0 3.2 0.00 0.05 0.00 61 1008.1
20260506091702 7 7 0.0 3.2 0.00 0.05 0.00 61 1008.1
20260506091602 7 6 0.0 3.2 0.00 0.05 0.00 60 1008.1
20260506091502 7 6 0.0 3.2 0.00 0.05 0.00 61 1008.1
20260506091423 7 8 0.0 3.2 0.00 0.05 0.00 61 1008.1
20260506091323 7 8 0.0 3.2 0.00 0.05 0.00 60 1008.2
20260506091202 7 6 0.0 3.2 0.00 0.05 0.00 60 1008.3
20260506091123 7 7 0.0 3.2 0.00 0.05 0.00 62 1008.3
20260506091002 7 5 0.0 3.2 0.00 0.05 0.00 62 1008.3
20260506090902 7 4 0.0 3.2 0.00 0.05 0.00 61 1008.3
20260506090802 7 4 0.0 3.2 0.00 0.05 0.00 60 1008.3
20260506090702 7 354 0.0 1.6 0.00 0.05 0.00 60 1008.2
20260506090602 7 354 0.0 1.6 0.00 0.05 0.00 61 1008.2
20260506090502 7 356 0.0 1.6 0.00 0.05 0.00 61 1008.3
20260506090402 7 356 0.0 1.6 0.00 0.05 0.00 60 1008.3
20260506090302 7 356 0.0 1.6 0.00 0.05 0.00 60 1008.3
20260506090202 7 357 0.0 1.6 0.00 0.05 0.00 60 1008.3
20260506090002 7 359 0.0 1.6 0.00 0.05 0.00 60 1008.4
20260506085902 7 360 0.0 1.6 0.00 0.05 0.00 61 1008.3
20260506085802 7 2 0.0 3.2 0.00 0.05 0.00 61 1008.3
20260506085702 7 4 0.0 3.2 0.00 0.05 0.00 61 1008.2
20260506085602 7 358 0.0 3.2 0.00 0.05 0.00 61 1008.2
20260506085502 7 348 0.0 3.2 0.00 0.05 0.00 60 1008.2
20260506085402 7 345 0.0 3.2 0.00 0.05 0.00 61 1008.1
20260506085305 7 344 0.0 3.2 0.00 0.05 0.00 60 1008.1
20260506085202 7 343 0.0 3.2 0.00 0.05 0.00 60 1008.1
20260506085102 7 343 0.0 3.2 0.00 0.05 0.00 61 1008.1
20260506085002 7 343 0.0 3.2 0.00 0.05 0.00 60 1008.1
20260506084902 7 342 0.0 3.2 0.00 0.05 0.00 60 1008.1
20260506084802 7 338 0.0 1.6 0.00 0.05 0.00 61 1008.1
20260506084702 7 338 0.0 1.6 0.00 0.05 0.00 61 1008.0
20260506084602 7 337 0.0 1.6 0.00 0.05 0.00 59 1007.9
20260506084502 7 336 0.0 1.6 0.00 0.05 0.00 60 1007.9
20260506084424 7 336 0.0 1.6 0.00 0.05 0.00 60 1008.1
20260506084302 7 335 0.0 1.6 0.00 0.05 0.00 62 1008.1
20260506084202 7 335 0.0 1.6 0.00 0.05 0.00 61 1008.0
20260506084102 7 335 0.0 1.6 0.00 0.05 0.00 60 1008.0
20260506084002 7 335 0.0 1.6 0.00 0.05 0.00 60 1008.0
20260506083902 7 335 0.0 1.6 0.00 0.05 0.00 59 1008.0
20260506083802 7 335 0.0 1.6 0.00 0.05 0.00 60 1008.0
20260506083702 7 335 0.0 1.6 0.00 0.05 0.00 60 1007.9
20260506083602 7 335 0.0 1.6 0.00 0.05 0.00 60 1007.9
20260506083502 7 335 0.0 1.6 0.00 0.05 0.00 61 1007.9
20260506083402 7 335 0.0 1.6 0.00 0.05 0.00 59 1007.9
20260506083302 7 335 0.0 1.6 0.00 0.05 0.00 59 1008.0
20260506083202 7 335 0.0 1.6 0.00 0.05 0.00 60 1008.0
20260506083123 7 335 0.0 1.6 0.00 0.05 0.00 60 1008.1
20260506083002 7 335 0.0 1.6 0.00 0.05 0.00 60 1008.1
20260506082902 7 335 0.0 1.6 0.00 0.05 0.00 61 1008.1
20260506082823 7 340 0.0 3.2 0.00 0.05 0.00 60 1008.1
20260506082702 7 348 0.0 3.2 0.00 0.05 0.00 61 1008.1
20260506082602 7 348 0.0 3.2 0.00 0.05 0.00 61 1008.1
20260506082502 7 348 0.0 3.2 0.00 0.05 0.00 60 1008.1
20260506082402 7 348 0.0 3.2 0.00 0.05 0.00 60 1008.1
20260506082304 7 348 0.0 3.2 0.00 0.05 0.00 59 1008.1
20260506082202 7 350 0.0 3.2 0.00 0.05 0.00 60 1008.1
20260506082102 7 350 0.0 3.2 0.00 0.05 0.00 59 1008.1
20260506082002 7 355 0.0 3.2 0.00 0.05 0.00 61 1008.1
20260506081923 7 356 0.0 3.2 0.00 0.05 0.00 60 1008.0
20260506081802 7 360 0.0 1.6 0.00 0.05 0.00 59 1008.1
20260506081702 7 357 0.0 1.6 0.00 0.05 0.00 61 1008.1
20260506081602 7 357 0.0 1.6 0.00 0.05 0.00 61 1008.1
20260506081502 7 357 0.0 1.6 0.00 0.05 0.00 60 1008.1
20260506081423 7 357 0.0 1.6 0.00 0.05 0.00 60 1008.1
20260506081302 7 354 0.0 1.6 0.00 0.05 0.00 60 1008.0
20260506081202 7 353 0.0 1.6 0.00 0.05 0.00 59 1008.0
20260506081102 7 353 0.0 1.6 0.00 0.05 0.00 60 1008.0
20260506081023 7 353 0.0 1.6 0.00 0.05 0.00 60 1008.0
20260506080903 7 353 0.0 1.6 0.00 0.05 0.00 60 1008.0
20260506080802 7 354 0.0 1.6 0.00 0.05 0.00 60 1008.1
20260506080702 7 354 0.0 1.6 0.00 0.05 0.00 60 1008.1
20260506080623 7 353 0.0 1.6 0.00 0.05 0.00 60 1008.1
20260506080502 7 353 0.0 1.6 0.00 0.05 0.00 60 1008.1
20260506080423 7 355 0.0 1.6 0.00 0.05 0.00 60 1008.1
20260506080302 7 357 0.0 1.6 0.00 0.05 0.00 59 1008.2
20260506080202 7 359 0.0 1.6 0.00 0.05 0.00 60 1008.2
20260506073502 7 0 0.0 0.0 0.00 0.05 0.00 59 1008.1
20260506073402 7 0 0.0 0.0 0.00 0.05 0.00 60 1008.1
20260506073323 7 0 0.0 0.0 0.00 0.05 0.00 60 1008.1
20260506073202 7 0 0.0 0.0 0.00 0.05 0.00 60 1008.1
20260506073102 7 0 0.0 0.0 0.00 0.05 0.00 60 1008.1
20260506073002 7 0 0.0 0.0 0.00 0.05 0.00 60 1008.1
20260506072902 7 0 0.0 0.0 0.00 0.05 0.00 61 1008.1
20260506072802 7 0 0.0 0.0 0.00 0.05 0.00 60 1008.1
20260506072702 7 0 0.0 0.0 0.00 0.05 0.00 60 1008.2
20260506072602 7 0 0.0 0.0 0.00 0.05 0.00 59 1008.2
20260506072502 7 0 0.0 0.0 0.00 0.05 0.00 60 1008.2
20260506072402 7 359 0.0 1.6 0.00 0.05 0.00 59 1008.1
20260506072323 7 359 0.0 1.6 0.00 0.05 0.00 59 1008.1
20260506072202 7 359 0.0 1.6 0.00 0.05 0.00 61 1008.1
20260506072102 7 359 0.0 1.6 0.00 0.05 0.00 61 1008.1
20260506072002 7 359 0.0 1.6 0.00 0.05 0.00 59 1008.1
20260506071902 7 359 0.0 1.6 0.00 0.05 0.00 60 1008.1
20260506071802 7 358 0.0 1.6 0.00 0.05 0.00 60 1008.1
20260506071702 7 357 0.0 1.6 0.00 0.05 0.00 60 1008.0
20260506071602 7 356 0.0 1.6 0.00 0.05 0.00 60 1008.0
20260506071502 7 356 0.0 1.6 0.00 0.05 0.00 60 1008.0
20260506071402 7 356 0.0 1.6 0.00 0.05 0.00 59 1008.0
20260506071302 7 356 0.0 1.6 0.00 0.05 0.00 59 1008.0
20260506071202 7 354 0.0 1.6 0.00 0.05 0.00 59 1008.0
20260506071102 7 354 0.0 1.6 0.00 0.05 0.00 60 1007.9
20260506071002 8 354 0.0 1.6 0.00 0.05 0.00 60 1007.9
20260506070923 7 354 0.0 1.6 0.00 0.05 0.00 60 1007.9
20260506070802 8 354 0.0 1.6 0.00 0.05 0.00 59 1008.0
20260506070702 8 354 0.0 1.6 0.00 0.05 0.00 59 1008.0
20260506070623 8 0 0.0 0.0 0.00 0.05 0.00 60 1008.1
20260506070502 8 0 0.0 0.0 0.00 0.05 0.00 59 1008.1
20260506070402 8 354 0.0 1.6 0.00 0.05 0.00 61 1008.0
20260506070302 8 354 0.0 1.6 0.00 0.05 0.00 60 1008.0
20260506070202 8 354 0.0 1.6 0.00 0.05 0.00 61 1008.0
20260506070123 8 354 0.0 1.6 0.00 0.05 0.00 60 1008.0
20260506062502 8 4 0.0 3.2 0.00 0.05 0.00 60 1008.1
20260506062402 8 4 0.0 3.2 0.00 0.05 0.00 60 1008.1
20260506062323 8 4 0.0 3.2 0.00 0.05 0.00 60 1008.1
20260506062202 8 4 0.0 3.2 0.00 0.05 0.00 61 1008.1
20260506062102 8 4 0.0 3.2 0.00 0.05 0.00 61 1008.1
20260506062023 8 4 0.0 3.2 0.00 0.05 0.00 59 1008.1
20260506061902 8 357 0.0 3.2 0.00 0.05 0.00 62 1008.2
20260506061802 8 352 0.0 3.2 0.00 0.05 0.00 61 1008.2
20260506061723 8 349 0.0 3.2 0.00 0.05 0.00 60 1008.3
20260506061602 8 348 0.0 3.2 0.00 0.05 0.00 60 1008.3
20260506061502 8 348 0.0 3.2 0.00 0.05 0.00 60 1008.2
20260506061402 8 345 0.0 3.2 0.00 0.05 0.00 60 1008.2
20260506061302 8 345 0.0 3.2 0.00 0.05 0.00 60 1008.2
20260506061202 8 345 0.0 3.2 0.00 0.05 0.00 61 1008.2
20260506061123 8 343 0.0 3.2 0.00 0.05 0.00 60 1008.2
20260506061002 8 337 0.0 3.2 0.00 0.05 0.00 59 1008.3
20260506060902 8 207 0.0 1.6 0.00 0.05 0.00 60 1008.4
20260506060802 8 207 0.0 1.6 0.00 0.05 0.00 60 1008.4
20260506060702 8 207 0.0 1.6 0.00 0.05 0.00 61 1008.3
20260506060602 8 207 0.0 1.6 0.00 0.05 0.00 61 1008.3
20260506060502 8 207 0.0 1.6 0.00 0.05 0.00 62 1008.2
20260506060402 8 207 0.0 1.6 0.00 0.05 0.00 63 1008.3
20260506060302 8 207 0.0 1.6 0.00 0.05 0.00 62 1008.3
20260506060202 8 207 0.0 1.6 0.00 0.05 0.00 62 1008.3
20260506051402 8 207 0.0 1.6 0.00 0.05 0.00 62 1008.1
20260506051302 8 207 0.0 1.6 0.00 0.05 0.00 63 1008.0
20260506051202 8 207 0.0 1.6 0.00 0.05 0.00 63 1007.9
20260506051102 8 207 0.0 1.6 0.00 0.05 0.00 63 1007.9
20260506051002 8 207 0.0 1.6 0.00 0.05 0.00 62 1007.9
20260506050902 8 207 0.0 1.6 0.00 0.05 0.00 66 1007.9
20260506050802 8 207 0.0 1.6 0.00 0.05 0.00 64 1007.9
20260506050702 8 0 0.0 0.0 0.00 0.05 0.00 64 1007.9
20260506050602 8 0 0.0 0.0 0.00 0.05 0.00 63 1007.9
20260506050502 8 0 0.0 0.0 0.00 0.05 0.00 62 1007.9
20260506050423 8 0 0.0 0.0 0.00 0.05 0.00 62 1007.9
20260506050302 8 0 0.0 0.0 0.00 0.05 0.00 65 1008.1
20260506050202 8 0 0.0 0.0 0.00 0.05 0.00 65 1008.2
20260506045102 8 0 0.0 0.0 0.00 0.05 0.00 63 1008.2
20260506045002 8 0 0.0 0.0 0.00 0.05 0.00 65 1008.2
20260506044902 8 0 0.0 0.0 0.00 0.05 0.00 65 1008.2
20260506044802 8 0 0.0 0.0 0.00 0.05 0.00 64 1008.2
20260506044702 8 0 0.0 0.0 0.00 0.05 0.00 62 1008.2
20260506044602 8 0 0.0 0.0 0.00 0.05 0.00 63 1008.2
20260506044502 8 0 0.0 0.0 0.00 0.05 0.00 63 1008.1
20260506044402 8 0 0.0 0.0 0.00 0.05 0.00 63 1008.1
20260506044302 8 0 0.0 0.0 0.00 0.05 0.00 64 1008.1
20260506044202 8 0 0.0 0.0 0.00 0.05 0.00 63 1008.1
20260506044123 8 0 0.0 0.0 0.00 0.05 0.00 63 1008.1
20260506044002 8 0 0.0 0.0 0.00 0.05 0.00 65 1008.2
20260506043902 8 0 0.0 0.0 0.00 0.05 0.00 65 1008.2
20260506043802 8 0 0.0 0.0 0.00 0.05 0.00 63 1008.2
20260506043702 8 0 0.0 0.0 0.00 0.05 0.00 63 1008.2
20260506043602 8 0 0.0 0.0 0.00 0.05 0.00 63 1008.2
20260506043502 8 0 0.0 0.0 0.00 0.05 0.00 65 1008.2
20260506043402 8 0 0.0 0.0 0.00 0.05 0.00 64 1008.2
20260506043302 8 0 0.0 0.0 0.00 0.05 0.00 63 1008.2
20260506043203 8 0 0.0 0.0 0.00 0.05 0.00 63 1008.1
20260506043102 8 0 0.0 0.0 0.00 0.05 0.00 63 1008.0
20260506043002 8 0 0.0 0.0 0.00 0.05 0.00 65 1008.0
20260506042902 8 0 0.0 0.0 0.00 0.05 0.00 66 1008.0
20260506042802 8 0 0.0 0.0 0.00 0.05 0.00 67 1008.0
20260506042702 8 0 0.0 0.0 0.00 0.05 0.00 67 1008.0
20260506042602 8 0 0.0 0.0 0.00 0.05 0.00 65 1008.0
20260506042502 8 0 0.0 0.0 0.00 0.05 0.00 63 1008.0
20260506042402 8 0 0.0 0.0 0.00 0.08 0.00 63 1008.0
20260506042305 8 0 0.0 0.0 0.00 0.08 0.00 63 1008.0
20260506042202 8 0 0.0 0.0 0.00 0.08 0.00 63 1008.0
20260506042102 8 0 0.0 0.0 0.00 0.08 0.00 61 1008.0
20260506042002 8 0 0.0 0.0 0.00 0.08 0.00 62 1008.0
20260506041902 8 0 0.0 0.0 0.00 0.10 0.00 62 1008.0
20260506041802 8 0 0.0 0.0 0.00 0.13 0.00 62 1008.0
20260506041723 8 0 0.0 0.0 0.00 0.13 0.00 62 1008.0
20260506041602 8 0 0.0 0.0 0.00 0.15 0.00 63 1008.0
20260506041503 8 0 0.0 0.0 0.00 0.15 0.00 63 1008.0
20260506041402 8 0 0.0 0.0 0.00 0.15 0.00 65 1007.9
20260506041323 8 0 0.0 0.0 0.00 0.18 0.00 65 1007.9
20260506041202 8 0 0.0 0.0 0.00 0.18 0.00 64 1007.9
20260506041102 8 0 0.0 0.0 0.00 0.18 0.00 65 1007.9
20260506041002 8 0 0.0 0.0 0.00 0.18 0.00 64 1007.9
20260506040902 8 0 0.0 0.0 0.00 0.18 0.00 63 1007.8
20260506040802 8 0 0.0 0.0 0.00 0.18 0.00 64 1007.9
20260506040702 8 0 0.0 0.0 0.00 0.18 0.00 63 1007.9
20260506040602 8 0 0.0 0.0 0.00 0.18 0.00 61 1008.0
20260506040502 8 0 0.0 0.0 0.00 0.18 0.00 62 1008.0
20260506040402 8 0 0.0 0.0 0.00 0.18 0.00 63 1008.0
20260506040302 8 0 0.0 0.0 0.00 0.18 0.00 66 1008.1
20260506040202 8 0 0.0 0.0 0.00 0.18 0.00 65 1008.1
20260506040123 8 0 0.0 0.0 0.00 0.18 0.00 65 1008.1
20260506040002 8 0 0.0 0.0 0.00 0.18 0.00 62 1008.1
20260506035902 8 0 0.0 0.0 0.00 0.18 0.18 63 1008.1
20260506035802 8 0 0.0 0.0 0.00 0.18 0.18 63 1008.1
20260506035702 8 0 0.0 0.0 0.00 0.18 0.18 64 1008.0
20260506035602 8 0 0.0 0.0 0.00 0.18 0.18 63 1007.9
20260506035502 8 207 0.0 1.6 0.00 0.18 0.18 61 1007.9
20260506035402 8 207 0.0 1.6 0.00 0.18 0.18 62 1007.9
20260506035305 8 207 0.0 1.6 0.00 0.18 0.18 64 1007.9
20260506035202 8 207 0.0 1.6 0.00 0.18 0.18 65 1007.9
20260506035102 8 207 0.0 1.6 0.00 0.18 0.18 65 1007.9
20260506035002 8 207 0.0 1.6 0.00 0.18 0.18 64 1007.9
20260506034902 8 207 0.0 1.6 0.00 0.18 0.18 64 1007.9
20260506034823 8 207 0.0 1.6 0.00 0.18 0.18 63 1007.9
20260506034702 8 207 0.0 1.6 0.00 0.18 0.18 64 1007.8
20260506034602 8 207 0.0 1.6 0.00 0.18 0.18 66 1007.8
20260506034502 8 207 0.0 1.6 0.00 0.18 0.18 64 1007.8
20260506034402 8 207 0.0 1.6 0.00 0.18 0.18 61 1007.8
20260506034302 8 207 0.0 1.6 0.00 0.18 0.18 61 1007.9
20260506034202 8 207 0.0 1.6 0.00 0.18 0.18 64 1007.9
20260506034102 8 207 0.0 1.6 0.00 0.18 0.18 64 1007.9
20260506034023 8 207 0.0 1.6 0.00 0.18 0.18 64 1007.9
20260506033902 8 207 0.0 1.6 0.00 0.18 0.18 62 1007.9
20260506033802 8 207 0.0 1.6 0.00 0.18 0.18 62 1007.9
20260506033702 8 0 0.0 0.0 0.00 0.18 0.18 62 1007.9
20260506033602 8 0 0.0 0.0 0.00 0.18 0.18 64 1007.9
20260506033502 8 0 0.0 0.0 0.00 0.18 0.18 65 1007.9
20260506033402 8 0 0.0 0.0 0.00 0.18 0.18 63 1007.9
20260506033302 8 0 0.0 0.0 0.00 0.18 0.18 63 1008.0
20260506033202 8 0 0.0 0.0 0.00 0.18 0.18 64 1008.0
20260506033102 8 0 0.0 0.0 0.00 0.18 0.18 64 1007.9
20260506033002 8 0 0.0 0.0 0.00 0.18 0.18 64 1007.9
20260506032902 8 0 0.0 0.0 0.00 0.18 0.18 63 1007.9
20260506032802 8 0 0.0 0.0 0.00 0.18 0.18 61 1007.9
20260506032702 8 0 0.0 0.0 0.00 0.18 0.18 61 1007.9
20260506032602 8 0 0.0 0.0 0.00 0.18 0.18 62 1007.8
20260506032502 8 0 0.0 0.0 0.00 0.18 0.18 61 1007.8
20260506032402 8 0 0.0 0.0 0.00 0.18 0.18 62 1007.8
20260506032305 8 0 0.0 0.0 0.00 0.18 0.18 62 1007.9
20260506032202 8 0 0.0 0.0 0.00 0.18 0.18 63 1007.9
20260506032102 8 0 0.0 0.0 0.00 0.18 0.18 62 1007.9
20260506032002 8 0 0.0 0.0 0.00 0.18 0.18 63 1007.9
20260506031902 8 0 0.0 0.0 0.00 0.18 0.18 63 1007.9
20260506031802 8 0 0.0 0.0 0.00 0.18 0.18 64 1007.9
20260506031702 8 0 0.0 0.0 0.00 0.18 0.18 64 1008.1
20260506031602 8 0 0.0 0.0 0.00 0.18 0.18 63 1008.1
20260506031502 8 0 0.0 0.0 0.00 0.18 0.18 63 1008.0
20260506031403 8 0 0.0 0.0 0.00 0.18 0.18 64 1008.0
20260506031302 8 0 0.0 0.0 0.00 0.18 0.18 63 1008.0
20260506031202 8 0 0.0 0.0 0.00 0.18 0.18 66 1007.9
20260506031102 8 0 0.0 0.0 0.00 0.18 0.18 64 1007.9
20260506031002 8 0 0.0 0.0 0.00 0.18 0.18 65 1007.9
20260506030902 8 0 0.0 0.0 0.00 0.18 0.18 65 1007.9
20260506030802 8 0 0.0 0.0 0.00 0.18 0.18 65 1007.9
20260506030702 8 0 0.0 0.0 0.00 0.18 0.18 64 1008.0
20260506030602 8 0 0.0 0.0 0.00 0.18 0.18 66 1008.0
20260506030502 8 0 0.0 0.0 0.00 0.18 0.18 65 1008.0
20260506030402 8 0 0.0 0.0 0.00 0.18 0.18 66 1008.0
20260506030302 8 0 0.0 0.0 0.00 0.18 0.18 61 1008.0
20260506030202 8 0 0.0 0.0 0.00 0.18 0.18 61 1008.1
20260506030123 8 0 0.0 0.0 0.00 0.18 0.18 61 1008.1
20260506030002 8 0 0.0 0.0 0.00 0.18 0.18 64 1008.0
20260506025902 8 0 0.0 0.0 0.00 0.18 0.18 65 1007.9
20260506025802 8 0 0.0 0.0 0.00 0.18 0.18 67 1007.9
20260506025723 8 0 0.0 0.0 0.00 0.18 0.18 67 1007.9
20260506025602 8 0 0.0 0.0 0.00 0.18 0.18 67 1007.9
20260506025502 8 0 0.0 0.0 0.00 0.18 0.18 66 1008.0
20260506025402 8 0 0.0 0.0 0.00 0.18 0.18 64 1008.0
20260506025305 8 0 0.0 0.0 0.00 0.18 0.18 64 1008.0
20260506025202 8 0 0.0 0.0 0.00 0.18 0.18 67 1008.0
20260506025102 8 0 0.0 0.0 0.00 0.18 0.18 67 1007.9
20260506025002 8 0 0.0 0.0 0.00 0.18 0.18 67 1007.9
20260506024902 8 0 0.0 0.0 0.00 0.18 0.18 63 1007.9
20260506024802 8 0 0.0 0.0 0.00 0.18 0.18 62 1007.9
20260506024702 8 0 0.0 0.0 0.00 0.18 0.18 62 1007.9
20260506024602 9 0 0.0 0.0 0.00 0.18 0.18 62 1007.9
20260506024502 9 0 0.0 0.0 0.00 0.18 0.18 63 1007.9
20260506024402 9 0 0.0 0.0 0.00 0.18 0.18 63 1007.9
20260506024302 9 0 0.0 0.0 0.00 0.18 0.18 63 1007.9
20260506024202 9 0 0.0 0.0 0.00 0.18 0.18 61 1007.9
20260506024102 9 0 0.0 0.0 0.00 0.18 0.18 61 1007.9
20260506024002 9 0 0.0 0.0 0.00 0.18 0.18 59 1007.9
20260506023902 9 0 0.0 0.0 0.00 0.18 0.18 60 1007.9
20260506023802 9 0 0.0 0.0 0.00 0.18 0.18 61 1007.9
20260506023723 9 0 0.0 0.0 0.00 0.18 0.18 62 1007.9
20260506023602 9 0 0.0 0.0 0.00 0.18 0.18 61 1008.0
20260506023502 9 0 0.0 0.0 0.00 0.18 0.18 62 1008.0
20260506023423 9 0 0.0 0.0 0.00 0.18 0.18 62 1008.0
20260506023323 9 0 0.0 0.0 0.00 0.18 0.18 63 1008.0
20260506023202 9 0 0.0 0.0 0.00 0.18 0.18 63 1007.9
20260506023102 9 0 0.0 0.0 0.00 0.18 0.18 61 1007.9
20260506023002 9 0 0.0 0.0 0.00 0.18 0.18 58 1007.9
20260506022902 9 0 0.0 0.0 0.00 0.18 0.18 57 1008.0
20260506022802 9 0 0.0 0.0 0.00 0.18 0.18 59 1008.0
20260506022702 9 0 0.0 0.0 0.00 0.18 0.18 59 1008.0
20260506022602 9 0 0.0 0.0 0.00 0.18 0.18 61 1008.0
20260506022502 9 0 0.0 0.0 0.00 0.18 0.18 57 1008.0
20260506022402 9 0 0.0 0.0 0.00 0.18 0.18 56 1008.0
20260506022323 9 0 0.0 0.0 0.00 0.18 0.18 56 1008.0
20260506022202 9 0 0.0 0.0 0.00 0.18 0.18 56 1008.1
20260506022102 9 0 0.0 0.0 0.00 0.18 0.18 59 1008.0
20260506022002 9 0 0.0 0.0 0.00 0.18 0.18 58 1008.0
20260506021902 9 0 0.0 0.0 0.00 0.18 0.18 59 1008.0
20260506021802 9 0 0.0 0.0 0.00 0.18 0.18 59 1007.9
20260506021702 9 0 0.0 0.0 0.00 0.18 0.18 58 1007.9
20260506021602 9 0 0.0 0.0 0.00 0.18 0.18 56 1007.8
20260506021502 9 0 0.0 0.0 0.00 0.18 0.18 58 1007.8
20260506021402 9 0 0.0 0.0 0.00 0.18 0.18 55 1007.8
20260506021323 9 0 0.0 0.0 0.00 0.18 0.18 55 1007.9
20260506021202 9 0 0.0 0.0 0.00 0.18 0.18 55 1007.9
20260506021102 9 0 0.0 0.0 0.00 0.18 0.18 56 1007.9
20260506021002 9 0 0.0 0.0 0.00 0.18 0.18 55 1007.9
20260506020902 9 207 0.0 1.6 0.00 0.18 0.18 56 1007.9
20260506020802 9 207 0.0 1.6 0.00 0.18 0.18 57 1007.8
20260506020702 9 207 0.0 1.6 0.00 0.18 0.18 55 1007.8
20260506020602 9 207 0.0 1.6 0.00 0.18 0.18 55 1007.7
20260506020502 9 207 0.0 1.6 0.00 0.18 0.18 54 1007.7
20260506020402 9 207 0.0 1.6 0.00 0.18 0.18 53 1007.7
20260506020302 9 207 0.0 1.6 0.00 0.18 0.18 55 1007.8
20260506020202 9 207 0.0 1.6 0.00 0.18 0.18 56 1007.8
20260506020002 9 207 0.0 1.6 0.00 0.18 0.18 54 1007.7
20260506015902 9 207 0.0 1.6 0.00 0.18 0.18 55 1007.7
20260506015802 9 207 0.0 1.6 0.00 0.18 0.18 53 1007.7
20260506015702 9 207 0.0 1.6 0.00 0.18 0.18 53 1007.8
20260506015602 9 207 0.0 1.6 0.00 0.18 0.18 52 1007.8
20260506015502 9 207 0.0 1.6 0.00 0.18 0.18 52 1007.9
20260506015402 9 207 0.0 1.6 0.00 0.18 0.18 53 1007.9
20260506015305 9 207 0.0 1.6 0.00 0.18 0.18 54 1007.8
20260506015202 9 207 0.0 1.6 0.00 0.18 0.18 54 1007.8
20260506015102 9 207 0.0 1.6 0.00 0.18 0.18 53 1007.8
20260506015002 9 207 0.0 1.6 0.00 0.18 0.18 53 1007.8
20260506014902 10 207 0.0 1.6 0.00 0.18 0.18 53 1007.8
20260506014802 10 207 0.0 1.6 0.00 0.18 0.18 55 1007.8
20260506014723 10 0 0.0 0.0 0.00 0.18 0.18 57 1007.8
20260506014602 10 0 0.0 0.0 0.00 0.18 0.18 56 1007.7
20260506014502 10 207 0.0 1.6 0.00 0.18 0.18 56 1007.7
20260506014423 10 208 0.0 1.6 0.00 0.18 0.18 55 1007.7
20260506014302 10 208 0.0 1.6 0.00 0.18 0.18 55 1007.6
20260506014202 10 208 0.0 1.6 0.00 0.18 0.18 57 1007.6
20260506014102 10 208 0.0 1.6 0.00 0.18 0.18 54 1007.6
20260506014002 10 209 0.0 1.6 0.00 0.18 0.18 55 1007.6
20260506013902 10 209 0.0 1.6 0.00 0.18 0.18 55 1007.6
20260506013802 10 209 0.0 1.6 0.00 0.18 0.18 55 1007.6
20260506013723 10 209 0.0 1.6 0.00 0.18 0.18 55 1007.6
20260506013602 10 210 0.0 1.6 0.00 0.18 0.18 51 1007.6
20260506013502 10 215 0.0 1.6 0.00 0.18 0.18 51 1007.5
20260506013402 10 214 0.0 1.6 0.00 0.18 0.18 51 1007.5
20260506013303 10 214 0.0 1.6 0.00 0.18 0.18 52 1007.5
20260506013223 10 214 0.0 1.6 0.00 0.18 0.18 52 1007.6
20260506013123 10 214 0.0 1.6 0.00 0.18 0.18 55 1007.6
20260506013002 10 214 0.0 1.6 0.00 0.18 0.18 52 1007.6
20260506012902 10 214 0.0 1.6 0.00 0.18 0.18 52 1007.5
20260506012802 10 214 0.0 1.6 0.00 0.18 0.18 52 1007.5
20260506012702 10 214 0.0 1.6 0.00 0.18 0.18 53 1007.5
20260506012623 10 213 0.0 1.6 0.00 0.18 0.18 51 1007.5
20260506012523 10 213 0.0 1.6 0.00 0.18 0.18 52 1007.5
20260506012402 10 0 0.0 0.0 0.00 0.18 0.18 56 1007.4
20260506012307 10 0 0.0 0.0 0.00 0.18 0.18 53 1007.4
20260506012202 10 0 0.0 0.0 0.00 0.18 0.18 54 1007.4
20260506012102 10 0 0.0 0.0 0.00 0.18 0.18 54 1007.4
20260506012023 10 0 0.0 0.0 0.00 0.18 0.18 53 1007.4
20260506011902 10 0 0.0 0.0 0.00 0.18 0.18 54 1007.3
20260506011802 10 0 0.0 0.0 0.00 0.18 0.18 54 1007.3
20260506011702 10 0 0.0 0.0 0.00 0.18 0.18 56 1007.3
20260506011602 10 0 0.0 0.0 0.00 0.18 0.18 56 1007.3
20260506011502 10 0 0.0 0.0 0.00 0.18 0.18 54 1007.3
20260506011423 10 0 0.0 0.0 0.00 0.18 0.18 54 1007.3
20260506011302 10 0 0.0 0.0 0.00 0.18 0.18 53 1007.3
20260506011202 10 0 0.0 0.0 0.00 0.18 0.18 51 1007.3
20260506011102 10 0 0.0 0.0 0.00 0.18 0.18 50 1007.3
20260506011002 10 222 0.0 1.6 0.00 0.18 0.18 52 1007.3
20260506010902 10 222 0.0 1.6 0.00 0.18 0.18 49 1007.3
20260506010802 10 222 0.0 1.6 0.00 0.18 0.18 52 1007.3
20260506010702 10 222 0.0 1.6 0.00 0.18 0.18 53 1007.3
20260506010602 10 222 0.0 1.6 0.00 0.18 0.18 50 1007.3
20260506010502 10 222 0.0 1.6 0.00 0.18 0.18 51 1007.3
20260506010423 10 222 0.0 1.6 0.00 0.18 0.18 50 1007.3
20260506010302 10 222 0.0 1.6 0.00 0.18 0.18 51 1007.3
20260506010223 10 222 0.0 1.6 0.00 0.18 0.18 51 1007.3
20260506010002 10 222 0.0 1.6 0.00 0.18 0.18 51 1007.3
20260506005902 10 219 0.0 3.2 0.00 0.18 0.18 49 1007.3
20260506005802 10 221 0.0 3.2 0.00 0.18 0.18 48 1007.3
20260506005702 10 221 0.0 3.2 0.00 0.18 0.18 50 1007.3
20260506005602 10 225 0.0 3.2 0.00 0.18 0.18 51 1007.3
20260506005502 10 225 0.0 3.2 0.00 0.18 0.18 50 1007.3
20260506005423 10 225 0.0 3.2 0.00 0.18 0.18 52 1007.3
20260506005305 10 225 0.0 3.2 0.00 0.18 0.18 52 1007.4
20260506005202 10 225 0.0 3.2 0.00 0.18 0.18 51 1007.4
20260506005123 10 225 0.0 3.2 0.00 0.18 0.18 51 1007.4
20260506005002 10 225 0.0 3.2 0.00 0.18 0.18 50 1007.4
20260506004902 10 312 0.0 1.6 0.00 0.18 0.18 49 1007.4
20260506004802 10 312 0.0 1.6 0.00 0.18 0.18 51 1007.4
20260506004702 10 312 0.0 1.6 0.00 0.18 0.18 53 1007.4
20260506004602 10 0 0.0 0.0 0.00 0.18 0.18 51 1007.5
20260506004503 10 0 0.0 0.0 0.00 0.18 0.18 51 1007.4
20260506004402 10 0 0.0 0.0 0.00 0.18 0.18 51 1007.4
20260506004302 10 0 0.0 0.0 0.00 0.18 0.18 50 1007.5
20260506004202 10 0 0.0 0.0 0.00 0.18 0.18 51 1007.5
20260506004102 10 328 0.0 1.6 0.00 0.18 0.18 50 1007.4
20260506004002 10 328 0.0 1.6 0.00 0.18 0.18 50 1007.4
20260506003902 10 328 0.0 1.6 0.00 0.18 0.18 51 1007.4
20260506003802 10 329 0.0 3.2 0.00 0.18 0.18 50 1007.4
20260506003702 10 329 0.0 3.2 0.00 0.18 0.18 50 1007.4
20260506003623 10 329 0.0 3.2 0.00 0.18 0.18 49 1007.4
20260506003502 10 332 0.0 3.2 0.00 0.18 0.18 48 1007.4
20260506003402 10 332 0.0 3.2 0.00 0.18 0.18 47 1007.4
20260506003323 10 332 0.0 3.2 0.00 0.18 0.18 47 1007.4
20260506003223 10 335 0.0 3.2 0.00 0.18 0.18 48 1007.4
20260506003123 10 335 0.0 3.2 0.00 0.18 0.18 47 1007.4
20260506003002 10 341 0.0 3.2 0.00 0.18 0.18 46 1007.5
20260506002923 10 344 0.0 3.2 0.00 0.18 0.18 45 1007.5
20260506002802 10 353 0.0 3.2 0.00 0.18 0.18 47 1007.4
20260506002702 10 350 0.0 3.2 0.00 0.18 0.18 46 1007.4
20260506002602 10 346 0.0 3.2 0.00 0.18 0.18 48 1007.4
20260506002502 10 348 0.0 3.2 0.00 0.18 0.18 48 1007.4
20260506002402 10 349 1.6 3.2 0.00 0.18 0.18 47 1007.4
20260506002305 10 352 1.6 3.2 0.00 0.18 0.18 45 1007.4
20260506002202 10 353 1.6 3.2 0.00 0.18 0.18 46 1007.4
20260506002123 10 353 1.6 3.2 0.00 0.18 0.18 46 1007.4
20260506002002 10 356 1.6 4.8 0.00 0.18 0.18 46 1007.4
20260506001902 10 356 1.6 4.8 0.00 0.18 0.18 45 1007.4
20260506001802 10 356 1.6 4.8 0.00 0.18 0.18 45 1007.4
20260506001702 10 358 1.6 4.8 0.00 0.18 0.18 48 1007.4
20260506001602 10 1 1.6 4.8 0.00 0.18 0.18 46 1007.4
20260506001502 10 2 1.6 4.8 0.00 0.18 0.18 46 1007.4
20260506001423 10 2 1.6 4.8 0.00 0.18 0.18 45 1007.4
20260506001302 10 356 1.6 4.8 0.00 0.18 0.18 46 1007.4
20260506001202 10 349 1.6 4.8 0.00 0.18 0.18 46 1007.5
20260506001102 10 347 1.6 4.8 0.00 0.18 0.18 47 1007.5
20260506001002 10 344 1.6 3.2 0.00 0.18 0.18 45 1007.4
20260506000923 10 343 1.6 3.2 0.00 0.18 0.18 45 1007.4
20260506000823 10 341 1.6 3.2 0.00 0.18 0.18 46 1007.4
20260506000702 10 344 1.6 4.8 0.00 0.18 0.18 46 1007.4
20260506000623 10 343 1.6 4.8 0.00 0.18 0.18 46 1007.4
20260506000502 10 341 1.6 4.8 0.00 0.18 0.18 46 1007.4
20260506000402 11 339 1.6 4.8 0.00 0.18 0.18 46 1007.4
20260506000302 11 341 1.6 4.8 0.00 0.18 0.18 45 1007.4
20260506000204 11 348 1.6 4.8 0.00 0.18 0.18 46 1007.3
20260506000002 11 350 1.6 4.8 0.00 0.18 0.18 48 1007.3
20260505235902 11 350 0.0 4.8 0.00 0.18 0.18 45 1007.3
20260505235802 11 348 0.0 3.2 0.00 0.18 0.18 45 1007.3
20260505235723 11 347 0.0 3.2 0.00 0.18 0.18 45 1007.3
20260505235623 11 349 0.0 4.8 0.00 0.18 0.18 46 1007.3
20260505235502 11 355 1.6 4.8 0.00 0.18 0.18 46 1007.3
20260505235402 11 355 1.6 4.8 0.00 0.18 0.18 47 1007.2
20260505235305 11 354 1.6 4.8 0.00 0.18 0.18 45 1007.2
20260505235202 11 351 1.6 4.8 0.00 0.18 0.18 45 1007.1
20260505235102 11 349 1.6 4.8 0.00 0.18 0.18 45 1007.2
20260505235002 11 350 1.6 4.8 0.00 0.18 0.18 44 1007.2
20260505234903 11 349 1.6 4.8 0.00 0.18 0.18 45 1007.2
20260505234802 11 349 1.6 4.8 0.00 0.18 0.18 45 1007.1
20260505234702 11 349 1.6 4.8 0.00 0.18 0.18 45 1007.1
20260505234602 11 348 1.6 4.8 0.00 0.18 0.18 45 1007.2
20260505234523 11 346 1.6 4.8 0.00 0.18 0.18 45 1007.2
20260505234423 11 344 1.6 4.8 0.00 0.18 0.18 45 1007.1
20260505234323 11 343 1.6 4.8 0.00 0.18 0.18 45 1007.1
20260505234202 11 344 1.6 4.8 0.00 0.18 0.18 45 1007.1
20260505234102 11 345 1.6 4.8 0.00 0.18 0.18 47 1007.0
20260505234002 11 340 0.0 4.8 0.00 0.18 0.18 46 1007.0
20260505233902 11 342 0.0 4.8 0.00 0.18 0.18 44 1006.9
20260505233802 11 335 0.0 4.8 0.00 0.18 0.18 46 1006.9
20260505233702 11 322 0.0 4.8 0.00 0.18 0.18 48 1006.9
20260505233602 11 247 0.0 3.2 0.00 0.18 0.18 45 1007.0
20260505233502 11 217 0.0 1.6 0.00 0.18 0.18 44 1007.0
20260505233423 11 216 0.0 1.6 0.00 0.18 0.18 44 1006.9
20260505233302 11 211 0.0 1.6 0.00 0.18 0.18 47 1006.9
20260505233202 11 212 0.0 1.6 0.00 0.18 0.18 47 1006.9
20260505233102 11 209 0.0 1.6 0.00 0.18 0.18 47 1006.9
20260505233002 11 202 0.0 1.6 0.00 0.18 0.18 46 1006.9
20260505232902 11 199 0.0 1.6 0.00 0.18 0.18 45 1006.9
20260505232802 11 203 0.0 6.4 0.00 0.18 0.18 44 1006.8
20260505232702 11 203 0.0 6.4 0.00 0.18 0.18 45 1006.8
20260505232602 11 203 0.0 6.4 0.00 0.18 0.18 46 1006.8
20260505232502 11 205 0.0 6.4 0.00 0.18 0.18 43 1006.8
20260505232402 11 206 0.0 6.4 0.00 0.18 0.18 44 1006.8
20260505232305 11 206 0.0 6.4 0.00 0.18 0.18 45 1006.9
20260505232202 11 206 0.0 6.4 0.00 0.18 0.18 45 1006.9
20260505232102 11 207 0.0 6.4 0.00 0.18 0.18 43 1006.9
20260505232002 11 211 0.0 6.4 0.00 0.18 0.18 44 1006.8
20260505231902 11 217 0.0 6.4 0.00 0.18 0.18 44 1006.8
20260505231802 11 227 0.0 6.4 0.00 0.18 0.18 46 1006.8
20260505231702 11 227 0.0 6.4 0.00 0.18 0.18 44 1006.9
20260505231602 11 227 1.6 6.4 0.00 0.18 0.18 43 1006.9
20260505231502 11 231 1.6 6.4 0.00 0.18 0.18 45 1006.8
20260505231402 11 256 1.6 6.4 0.00 0.18 0.18 46 1006.8
20260505231302 11 254 1.6 6.4 0.00 0.18 0.18 47 1006.8
20260505231202 11 249 1.6 6.4 0.00 0.18 0.18 43 1006.8
20260505231102 11 266 1.6 6.4 0.00 0.18 0.18 45 1006.8
20260505231002 11 320 1.6 4.8 0.00 0.18 0.18 44 1006.8
20260505230902 11 337 1.6 4.8 0.00 0.18 0.18 46 1006.8
20260505230823 11 348 1.6 4.8 0.00 0.18 0.18 44 1006.7
20260505230702 11 347 1.6 4.8 0.00 0.18 0.18 44 1006.8
20260505230602 11 354 1.6 4.8 0.00 0.18 0.18 45 1006.8
20260505230502 11 352 1.6 4.8 0.00 0.18 0.18 46 1006.8
20260505230402 11 352 1.6 3.2 0.00 0.18 0.18 48 1006.8
20260505230302 11 354 1.6 3.2 0.00 0.18 0.18 47 1006.8
20260505230202 11 360 1.6 3.2 0.00 0.18 0.18 46 1006.8
20260505230023 11 3 0.0 3.2 0.00 0.18 0.18 49 1006.8
20260505225902 11 334 0.0 3.2 0.00 0.18 0.18 47 1006.7
20260505225823 11 331 0.0 1.6 0.00 0.18 0.18 51 1006.7
20260505225723 11 339 0.0 1.6 0.00 0.18 0.18 50 1006.8
20260505225602 11 335 0.0 1.6 0.00 0.18 0.18 49 1006.8
20260505225502 11 350 0.0 1.6 0.00 0.18 0.18 49 1006.8
20260505225402 11 222 0.0 4.8 0.00 0.18 0.18 49 1006.8
20260505225323 11 227 1.6 4.8 0.00 0.18 0.18 49 1006.8
20260505225202 11 224 1.6 4.8 0.00 0.18 0.18 49 1006.7
20260505225102 11 224 1.6 4.8 0.00 0.18 0.18 48 1006.7
20260505225002 11 219 0.0 4.8 0.00 0.18 0.18 51 1006.8
20260505224923 11 219 0.0 4.8 0.00 0.18 0.18 51 1006.8
20260505224802 11 223 1.6 4.8 0.00 0.18 0.18 49 1006.7
20260505224702 11 232 1.6 4.8 0.00 0.18 0.18 49 1006.8
20260505224602 11 235 1.6 4.8 0.00 0.18 0.18 48 1006.8
20260505224502 11 244 1.6 4.8 0.00 0.18 0.18 47 1006.8
20260505224402 11 277 1.6 4.8 0.00 0.18 0.18 49 1006.8
20260505224323 12 320 0.0 4.8 0.00 0.18 0.18 48 1006.8
20260505224223 11 350 0.0 3.2 0.00 0.18 0.18 50 1006.8
20260505224102 11 350 0.0 3.2 0.00 0.18 0.18 52 1006.8
20260505224002 11 350 0.0 3.2 0.00 0.18 0.18 50 1006.8
20260505223902 11 323 0.0 4.8 0.00 0.18 0.18 46 1006.8
20260505223823 11 271 1.6 8.0 0.00 0.18 0.18 49 1006.8
20260505223702 11 229 1.6 9.7 0.00 0.18 0.18 48 1006.8
20260505223602 11 228 1.6 9.7 0.00 0.18 0.18 47 1006.9
20260505223523 12 226 1.6 9.7 0.00 0.18 0.18 47 1006.9
20260505223402 12 224 1.6 9.7 0.00 0.18 0.18 49 1006.9
20260505223302 11 224 1.6 9.7 0.00 0.18 0.18 49 1006.9
20260505223202 12 223 1.6 9.7 0.00 0.18 0.18 50 1006.9
20260505223102 12 224 1.6 9.7 0.00 0.18 0.18 48 1006.9
20260505223023 12 228 1.6 9.7 0.00 0.18 0.18 48 1006.9
20260505222902 12 231 1.6 9.7 0.00 0.18 0.18 46 1006.9
20260505222823 12 229 0.0 9.7 0.00 0.18 0.18 47 1006.9
20260505222702 12 339 0.0 3.2 0.00 0.18 0.18 48 1006.9
20260505222602 12 339 0.0 3.2 0.00 0.18 0.18 48 1006.9
20260505222523 12 339 0.0 3.2 0.00 0.18 0.18 50 1006.9
20260505222423 12 336 0.0 3.2 0.00 0.18 0.18 49 1006.9
20260505222305 12 336 0.0 3.2 0.00 0.18 0.18 49 1006.9
20260505222202 12 350 0.0 3.2 0.00 0.18 0.18 50 1006.9
20260505222102 12 358 0.0 3.2 0.00 0.18 0.18 51 1006.9